Air Quality Table

TIMESTAMP NO2 SO2 O3 PM10 PM2.5 CO TEMP HUM WS WD NO
2022-01-24 18:00 2.32 µg/m3 0.52 µg/m3 81.86 µg/m3 3.2 µg/m3 N/A 0.18 mg/m3 10.92 °C 71.64 % 4.49 m/s 240.69 Deg 0.07 µg/m3
2022-01-24 17:00 2.17 µg/m3 0.53 µg/m3 86.54 µg/m3 3.36 µg/m3 N/A 0.18 mg/m3 11.25 °C 65.33 % 5.2 m/s 300.37 Deg 0.05 µg/m3
2022-01-24 16:00 1.36 µg/m3 0.45 µg/m3 86.59 µg/m3 4.14 µg/m3 N/A 0.18 mg/m3 11.4 °C 66.52 % 6.08 m/s 257.26 Deg 0.07 µg/m3
2022-01-24 15:00 1.12 µg/m3 0.42 µg/m3 87.59 µg/m3 2.56 µg/m3 N/A 0.17 mg/m3 11.56 °C 66.94 % 5.92 m/s 237.24 Deg 0.08 µg/m3
2022-01-24 14:00 10.09 µg/m3 0.48 µg/m3 87.22 µg/m3 2.8 µg/m3 N/A 0.17 mg/m3 11.59 °C 68 % 5.88 m/s 214.41 Deg 1.97 µg/m3
2022-01-24 13:00 1.21 µg/m3 0.53 µg/m3 88.98 µg/m3 2.57 µg/m3 N/A 0.17 mg/m3 12.01 °C 66.82 % 5.87 m/s 229.41 Deg 0.14 µg/m3
2022-01-24 12:00 1.58 µg/m3 0.59 µg/m3 87.17 µg/m3 2.22 µg/m3 N/A 0.18 mg/m3 11.87 °C 63.78 % 6.18 m/s 181.08 Deg 0.24 µg/m3
2022-01-24 11:00 0.91 µg/m3 0.56 µg/m3 84.07 µg/m3 4.07 µg/m3 N/A 0.17 mg/m3 11.79 °C 60.63 % 6.14 m/s 261.21 Deg 0.11 µg/m3
2022-01-24 10:00 1.01 µg/m3 0.62 µg/m3 83.93 µg/m3 2.7 µg/m3 N/A 0.18 mg/m3 11.54 °C 61.78 % 6.14 m/s 206.65 Deg 0.11 µg/m3
2022-01-24 09:00 1.24 µg/m3 0.7 µg/m3 81.07 µg/m3 1.79 µg/m3 N/A 0.18 mg/m3 10.86 °C 62.79 % 4.95 m/s 266.88 Deg 0.11 µg/m3
2022-01-24 08:00 3.95 µg/m3 0.93 µg/m3 79.03 µg/m3 2.57 µg/m3 N/A 0.17 mg/m3 10.43 °C 59.86 % 4.45 m/s 286.79 Deg 0.09 µg/m3
2022-01-24 07:00 1.65 µg/m3 1.06 µg/m3 83.64 µg/m3 4.11 µg/m3 N/A 0.18 mg/m3 10.29 °C 61.31 % 3.72 m/s 287.3 Deg 0.03 µg/m3
2022-01-24 06:00 3.99 µg/m3 1.5 µg/m3 81.66 µg/m3 4.66 µg/m3 N/A 0.18 mg/m3 10.27 °C 62.92 % 3.41 m/s 310.33 Deg 0.02 µg/m3
2022-01-24 05:00 2.33 µg/m3 1.27 µg/m3 82.83 µg/m3 4.29 µg/m3 N/A 0.18 mg/m3 10.14 °C 61.69 % 3.58 m/s 229.66 Deg 0.04 µg/m3
2022-01-24 04:00 2.48 µg/m3 1.37 µg/m3 79.76 µg/m3 4.07 µg/m3 N/A 0.14 mg/m3 9.78 °C 64.59 % 2.74 m/s 249.67 Deg 0.04 µg/m3
2022-01-24 03:00 2.87 µg/m3 1.3 µg/m3 80.99 µg/m3 3.12 µg/m3 N/A 0.18 mg/m3 9.75 °C 65.32 % 3.75 m/s 100.01 Deg 0.06 µg/m3
2022-01-24 02:00 2.1 µg/m3 0.86 µg/m3 83.02 µg/m3 2.37 µg/m3 N/A 0.18 mg/m3 9.67 °C 70.08 % 3.22 m/s 132.68 Deg 0.04 µg/m3
2022-01-24 01:00 2.26 µg/m3 0.73 µg/m3 86.07 µg/m3 2.7 µg/m3 N/A 0.18 mg/m3 9.8 °C 71.16 % 3.4 m/s 123.95 Deg 0.04 µg/m3
2022-01-24 00:00 3.38 µg/m3 0.68 µg/m3 86.2 µg/m3 3.82 µg/m3 N/A 0.18 mg/m3 10.32 °C 69.25 % 4.12 m/s 193.13 Deg 0.04 µg/m3
2022-01-23 23:00 2.73 µg/m3 0.63 µg/m3 87.06 µg/m3 2.56 µg/m3 N/A 0.18 mg/m3 10.96 °C 59.86 % 3.67 m/s 193.69 Deg 0.03 µg/m3
2022-01-23 22:00 2.83 µg/m3 0.67 µg/m3 88.78 µg/m3 2.4 µg/m3 N/A 0.18 mg/m3 11.45 °C 59.13 % 4.41 m/s 221.07 Deg 0.03 µg/m3
2022-01-23 21:00 1.34 µg/m3 0.48 µg/m3 91.69 µg/m3 2.94 µg/m3 N/A 0.18 mg/m3 11.48 °C 58.85 % 3.16 m/s 285.55 Deg 0.02 µg/m3
2022-01-23 20:00 1.59 µg/m3 0.53 µg/m3 92.25 µg/m3 2.33 µg/m3 N/A 0.18 mg/m3 11.46 °C 59.11 % 4.06 m/s 268.35 Deg 0.02 µg/m3
2022-01-23 19:00 1.5 µg/m3 0.52 µg/m3 91.92 µg/m3 1.95 µg/m3 N/A 0.17 mg/m3 11.45 °C 59.49 % 4.02 m/s 193.09 Deg 0.02 µg/m3
2022-01-23 18:00 1.05 µg/m3 0.47 µg/m3 90.9 µg/m3 2.1 µg/m3 N/A 0.17 mg/m3 11.17 °C 57.99 % 3.61 m/s 266.73 Deg 0.02 µg/m3
2022-01-23 17:00 0.87 µg/m3 0.55 µg/m3 89.97 µg/m3 1.06 µg/m3 N/A 0.17 mg/m3 11.41 °C 58.28 % 4.68 m/s 243.22 Deg 0.05 µg/m3
2022-01-23 16:00 1.75 µg/m3 0.55 µg/m3 90.82 µg/m3 2.54 µg/m3 N/A 0.18 mg/m3 11.45 °C 64.78 % 4.92 m/s 299.61 Deg 0.14 µg/m3
2022-01-23 15:00 1.87 µg/m3 0.55 µg/m3 89.52 µg/m3 1.54 µg/m3 N/A 0.18 mg/m3 11.65 °C 65.55 % 4.87 m/s 247.63 Deg 0.22 µg/m3
2022-01-23 14:00 1.83 µg/m3 0.59 µg/m3 88.52 µg/m3 0.63 µg/m3 N/A 0.17 mg/m3 11.73 °C 62.88 % 4.37 m/s 272.75 Deg 0.3 µg/m3
2022-01-23 13:00 1.25 µg/m3 0.54 µg/m3 87.9 µg/m3 0.1 µg/m3 N/A 0.17 mg/m3 11.53 °C 59.72 % 3.95 m/s 263.66 Deg 0.17 µg/m3
2022-01-23 12:00 1.3 µg/m3 0.74 µg/m3 85.71 µg/m3 1.31 µg/m3 N/A 0.16 mg/m3 11.82 °C 53.13 % 3.79 m/s 292.26 Deg 0.19 µg/m3
2022-01-23 11:00 1.51 µg/m3 0.84 µg/m3 81.02 µg/m3 1.49 µg/m3 N/A 0.17 mg/m3 11.72 °C 57.02 % 3.65 m/s 304.62 Deg 0.24 µg/m3
2022-01-23 10:00 4.67 µg/m3 0.86 µg/m3 74.07 µg/m3 2.19 µg/m3 N/A 0.17 mg/m3 11.32 °C 59.56 % 4.39 m/s 218.74 Deg 0.9 µg/m3
2022-01-23 09:00 2.78 µg/m3 1.29 µg/m3 75.05 µg/m3 2.14 µg/m3 N/A 0.17 mg/m3 10.61 °C 57.89 % 4.28 m/s 303.83 Deg 0.31 µg/m3
2022-01-23 08:00 3.08 µg/m3 1.16 µg/m3 76.18 µg/m3 2.22 µg/m3 N/A 0.17 mg/m3 9.83 °C 59.49 % 4.44 m/s 94.45 Deg 0.16 µg/m3
2022-01-23 07:00 2.11 µg/m3 1.27 µg/m3 78.72 µg/m3 1.95 µg/m3 N/A 0.17 mg/m3 9.73 °C 58.58 % 4.97 m/s 102.09 Deg 0.08 µg/m3
2022-01-23 06:00 2.66 µg/m3 1.46 µg/m3 79.06 µg/m3 2.27 µg/m3 N/A 0.17 mg/m3 9.97 °C 58.58 % 5.62 m/s 79.13 Deg 0.05 µg/m3
2022-01-23 05:00 3.6 µg/m3 1.03 µg/m3 74.47 µg/m3 4.04 µg/m3 N/A 0.19 mg/m3 10.34 °C 67.95 % 4.55 m/s 35.95 Deg 0.05 µg/m3
2022-01-23 04:00 2.24 µg/m3 0.97 µg/m3 77.09 µg/m3 4.39 µg/m3 N/A 0.16 mg/m3 10.14 °C 70.63 % 3.14 m/s 124.11 Deg 0.05 µg/m3
2022-01-23 03:00 3.56 µg/m3 0.79 µg/m3 80.57 µg/m3 3.56 µg/m3 N/A 0.19 mg/m3 10.38 °C 73.92 % 6.27 m/s 58.61 Deg 0.05 µg/m3
2022-01-23 02:00 2.23 µg/m3 0.54 µg/m3 77.6 µg/m3 3.55 µg/m3 N/A 0.2 mg/m3 10.23 °C 77.92 % 5.38 m/s 70.4 Deg 0.05 µg/m3
2022-01-23 01:00 1.69 µg/m3 0.49 µg/m3 79.72 µg/m3 4.25 µg/m3 N/A 0.2 mg/m3 9.86 °C 78.12 % 5.2 m/s 42.84 Deg 0.04 µg/m3
2022-01-23 00:00 3.99 µg/m3 0.5 µg/m3 74.42 µg/m3 4.17 µg/m3 N/A 0.22 mg/m3 9.95 °C 84.72 % 4.54 m/s 100.03 Deg 0.05 µg/m3
2022-01-22 23:00 4.09 µg/m3 0.53 µg/m3 75.04 µg/m3 4.46 µg/m3 N/A 0.23 mg/m3 11.02 °C 79.85 % 2.01 m/s 139.54 Deg 0.06 µg/m3
2022-01-22 22:00 4.02 µg/m3 0.47 µg/m3 78.06 µg/m3 2.43 µg/m3 N/A 0.24 mg/m3 11.08 °C 76.13 % 1.72 m/s 201.63 Deg 0.05 µg/m3
2022-01-22 21:00 2.81 µg/m3 0.44 µg/m3 84.15 µg/m3 2.22 µg/m3 N/A 0.19 mg/m3 11.18 °C 73.9 % 1.38 m/s 40.35 Deg 0.04 µg/m3
2022-01-22 20:00 4.35 µg/m3 0.51 µg/m3 81.73 µg/m3 2.38 µg/m3 N/A 0.18 mg/m3 11.08 °C 74.44 % 1.32 m/s 103.92 Deg 0.02 µg/m3
2022-01-22 19:00 4.84 µg/m3 0.45 µg/m3 76.25 µg/m3 3.5 µg/m3 N/A 0.19 mg/m3 10.95 °C 77.35 % 2.38 m/s 169.63 Deg 0.03 µg/m3
2022-01-22 18:00 4.59 µg/m3 0.48 µg/m3 74.8 µg/m3 2.45 µg/m3 N/A 0.18 mg/m3 10.97 °C 78.42 % 1.99 m/s 170.67 Deg 0.05 µg/m3
2022-01-22 17:00 2.44 µg/m3 0.44 µg/m3 74.93 µg/m3 1.63 µg/m3 N/A 0.18 mg/m3 11.48 °C 77.48 % 2.27 m/s 144.36 Deg 0.14 µg/m3
2022-01-22 16:00 1.2 µg/m3 0.43 µg/m3 80.67 µg/m3 3.63 µg/m3 N/A 0.18 mg/m3 11.79 °C 76.73 % 2.39 m/s 226.27 Deg 0.1 µg/m3
2022-01-22 15:00 -2.04 µg/m3 0.51 µg/m3 81.6 µg/m3 3.42 µg/m3 N/A 0.18 mg/m3 12.04 °C 74.62 % 3.09 m/s 214.88 Deg 5.33 µg/m3
2022-01-22 14:00 1.37 µg/m3 0.5 µg/m3 83.45 µg/m3 4.55 µg/m3 N/A 0.18 mg/m3 12.34 °C 73.79 % 3.51 m/s 310.48 Deg 0.19 µg/m3
2022-01-22 13:00 1.43 µg/m3 0.45 µg/m3 81.84 µg/m3 4.93 µg/m3 N/A 0.19 mg/m3 12.7 °C 72.99 % 3.95 m/s 204.77 Deg 0.24 µg/m3
2022-01-22 12:00 1.47 µg/m3 0.48 µg/m3 82.88 µg/m3 4.23 µg/m3 N/A 0.18 mg/m3 12.75 °C 69.77 % 4.17 m/s 229.59 Deg 0.24 µg/m3
2022-01-22 11:00 2.57 µg/m3 0.49 µg/m3 83.4 µg/m3 7.31 µg/m3 N/A 0.18 mg/m3 12.51 °C 66.93 % 5.4 m/s 279.78 Deg 0.49 µg/m3
2022-01-22 10:00 1.29 µg/m3 0.46 µg/m3 83.96 µg/m3 6.55 µg/m3 N/A 0.18 mg/m3 12.09 °C 70.05 % 6.03 m/s 265.57 Deg 0.15 µg/m3
2022-01-22 09:00 2.07 µg/m3 0.45 µg/m3 84.15 µg/m3 7.02 µg/m3 N/A 0.18 mg/m3 11.71 °C 71.87 % 7.1 m/s 263.57 Deg 0.15 µg/m3
2022-01-22 08:00 2.06 µg/m3 0.43 µg/m3 85.08 µg/m3 8.25 µg/m3 N/A 0.18 mg/m3 11.58 °C 73.32 % 7.15 m/s 296.07 Deg 0.06 µg/m3
2022-01-22 07:00 2 µg/m3 0.45 µg/m3 86.23 µg/m3 9.11 µg/m3 N/A 0.18 mg/m3 11.78 °C 69.27 % 8.26 m/s 315.06 Deg 0.03 µg/m3
2022-01-22 06:00 1.36 µg/m3 0.46 µg/m3 86.93 µg/m3 7.73 µg/m3 N/A 0.18 mg/m3 11.78 °C 70.04 % 8.26 m/s 301.02 Deg 0.02 µg/m3
2022-01-22 05:00 0.87 µg/m3 0.43 µg/m3 87.06 µg/m3 5.91 µg/m3 N/A 0.18 mg/m3 11.39 °C 71.91 % 7.02 m/s 278.03 Deg 0.02 µg/m3
2022-01-22 04:00 1.3 µg/m3 0.48 µg/m3 87.25 µg/m3 7.63 µg/m3 N/A 0.15 mg/m3 11.44 °C 70.07 % 7.55 m/s 278.31 Deg 0.03 µg/m3
2022-01-22 03:00 1.19 µg/m3 0.43 µg/m3 88.17 µg/m3 7.2 µg/m3 N/A 0.15 mg/m3 11.9 °C 63.71 % 7.76 m/s 239.73 Deg 0.03 µg/m3
2022-01-22 02:00 1.47 µg/m3 0.4 µg/m3 86.92 µg/m3 7.82 µg/m3 N/A 0.16 mg/m3 11 °C 77.47 % 6.78 m/s 290.44 Deg 0.03 µg/m3
2022-01-22 01:00 1.54 µg/m3 0.47 µg/m3 85.6 µg/m3 6.34 µg/m3 N/A 0.16 mg/m3 12.05 °C 71.78 % 7.28 m/s 272.44 Deg 0.03 µg/m3
2022-01-22 00:00 2.33 µg/m3 0.41 µg/m3 84.78 µg/m3 5.14 µg/m3 N/A 0.16 mg/m3 11.71 °C 72.72 % 6.59 m/s 251.08 Deg 0.02 µg/m3
2022-01-21 23:00 1.49 µg/m3 0.41 µg/m3 86.2 µg/m3 6.27 µg/m3 N/A 0.16 mg/m3 11.58 °C 75.46 % 6.58 m/s 296 Deg 0.02 µg/m3
2022-01-21 22:00 1.19 µg/m3 0.45 µg/m3 86.56 µg/m3 6.88 µg/m3 N/A 0.16 mg/m3 12.06 °C 71.22 % 6.09 m/s 288.81 Deg 0.03 µg/m3
2022-01-21 21:00 1.47 µg/m3 0.43 µg/m3 86.12 µg/m3 4.89 µg/m3 N/A 0.16 mg/m3 12.11 °C 71.48 % 6 m/s 284.88 Deg 0.03 µg/m3
2022-01-21 20:00 1.53 µg/m3 0.43 µg/m3 88.07 µg/m3 3.44 µg/m3 N/A 0.16 mg/m3 12.2 °C 72.21 % 5.9 m/s 237.22 Deg 0.03 µg/m3
2022-01-21 19:00 1.17 µg/m3 0.45 µg/m3 91.23 µg/m3 3.52 µg/m3 N/A 0.15 mg/m3 12.27 °C 71.88 % 6.12 m/s 242.61 Deg 0.02 µg/m3
2022-01-21 18:00 0.69 µg/m3 0.41 µg/m3 91.75 µg/m3 3.58 µg/m3 N/A 0.15 mg/m3 12.13 °C 72.9 % 5.95 m/s 239.92 Deg 0.03 µg/m3
2022-01-21 17:00 0.81 µg/m3 0.4 µg/m3 95.23 µg/m3 3.9 µg/m3 N/A 0.15 mg/m3 12.41 °C 69.24 % 6.92 m/s 233.01 Deg 0.04 µg/m3
2022-01-21 16:00 0.7 µg/m3 0.45 µg/m3 96.44 µg/m3 4.44 µg/m3 N/A 0.14 mg/m3 12.7 °C 65.91 % 7.61 m/s 179.03 Deg 0.07 µg/m3
2022-01-21 15:00 0.78 µg/m3 0.46 µg/m3 93.22 µg/m3 5.06 µg/m3 N/A 0.15 mg/m3 12.82 °C 70.69 % 7.39 m/s 238.83 Deg 0.08 µg/m3
2022-01-21 14:00 0.91 µg/m3 0.5 µg/m3 94.82 µg/m3 4.55 µg/m3 N/A 0.15 mg/m3 13.03 °C 68.63 % 7.36 m/s 233.38 Deg 0.1 µg/m3
2022-01-21 13:00 1.35 µg/m3 0.51 µg/m3 93.61 µg/m3 5.43 µg/m3 N/A 0.15 mg/m3 13 °C 68.41 % 7.03 m/s 233.57 Deg 0.18 µg/m3
2022-01-21 12:00 0.97 µg/m3 0.53 µg/m3 92.36 µg/m3 5.27 µg/m3 N/A 0.15 mg/m3 13.02 °C 66.23 % 6.79 m/s 218.95 Deg 0.11 µg/m3
2022-01-21 11:00 0.91 µg/m3 0.56 µg/m3 91.78 µg/m3 4.57 µg/m3 N/A 0.15 mg/m3 12.99 °C 68.42 % 6.34 m/s 185.7 Deg 0.1 µg/m3
2022-01-21 10:00 1.15 µg/m3 0.58 µg/m3 92.03 µg/m3 5.59 µg/m3 N/A 0.15 mg/m3 12.75 °C 67.97 % 6.13 m/s 207.68 Deg 0.12 µg/m3
2022-01-21 09:00 1.36 µg/m3 0.61 µg/m3 90.6 µg/m3 3.74 µg/m3 N/A 0.15 mg/m3 12.45 °C 66.93 % 5.38 m/s 164.09 Deg 0.09 µg/m3
2022-01-21 08:00 1.65 µg/m3 0.58 µg/m3 91.53 µg/m3 5.43 µg/m3 N/A 0.15 mg/m3 12.02 °C 63.9 % 4.18 m/s 243.26 Deg 0.06 µg/m3
2022-01-21 07:00 1.72 µg/m3 0.69 µg/m3 96.15 µg/m3 6.67 µg/m3 N/A 0.17 mg/m3 11.93 °C 69.32 % 4.38 m/s 268.93 Deg 0.03 µg/m3
2022-01-21 06:00 2.06 µg/m3 0.82 µg/m3 101.71 µg/m3 6.72 µg/m3 N/A 0.19 mg/m3 11.85 °C 68.68 % 4.84 m/s 251.96 Deg 0.03 µg/m3
2022-01-21 05:00 2.19 µg/m3 1.3 µg/m3 103.58 µg/m3 8.17 µg/m3 N/A 0.19 mg/m3 11.81 °C 65.1 % 4.46 m/s 217.09 Deg 0.02 µg/m3
2022-01-21 04:00 2.08 µg/m3 2.23 µg/m3 111.24 µg/m3 7.85 µg/m3 N/A 0.17 mg/m3 11.75 °C 69.37 % 5.47 m/s 221.79 Deg 0.03 µg/m3
2022-01-21 03:00 1.59 µg/m3 11.43 µg/m3 109.26 µg/m3 7.06 µg/m3 N/A 0.18 mg/m3 11.66 °C 71.07 % 5.39 m/s 227.82 Deg 0.02 µg/m3
2022-01-21 02:00 1.36 µg/m3 6.09 µg/m3 105.97 µg/m3 7.5 µg/m3 N/A 0.16 mg/m3 11.67 °C 69.38 % 5.95 m/s 257.19 Deg 0.03 µg/m3
2022-01-21 01:00 1.2 µg/m3 3.13 µg/m3 105.89 µg/m3 6.18 µg/m3 N/A 0.16 mg/m3 11.77 °C 70.28 % 5.81 m/s 223.08 Deg 0.02 µg/m3
2022-01-21 00:00 0.99 µg/m3 3.89 µg/m3 102.97 µg/m3 5.29 µg/m3 N/A 0.16 mg/m3 11.95 °C 70.42 % 6.43 m/s 230.09 Deg 0.03 µg/m3
2022-01-20 23:00 1.28 µg/m3 2.44 µg/m3 98.65 µg/m3 6.31 µg/m3 N/A 0.16 mg/m3 12.22 °C 73.71 % 6.31 m/s 223.06 Deg 0.02 µg/m3
2022-01-20 22:00 1.01 µg/m3 1.64 µg/m3 98.7 µg/m3 6.01 µg/m3 N/A 0.16 mg/m3 12.26 °C 73.05 % 4.01 m/s 237.86 Deg 0.03 µg/m3
2022-01-20 21:00 1.08 µg/m3 1.5 µg/m3 100.32 µg/m3 5.81 µg/m3 N/A 0.16 mg/m3 12.19 °C 72.3 % 4.39 m/s 206.26 Deg 0.03 µg/m3
2022-01-20 20:00 1.02 µg/m3 1.34 µg/m3 99.33 µg/m3 4.81 µg/m3 N/A 0.16 mg/m3 12.09 °C 70.53 % 4.44 m/s 229.68 Deg 0.02 µg/m3
2022-01-20 19:00 1.05 µg/m3 1.56 µg/m3 99.41 µg/m3 4.31 µg/m3 N/A 0.16 mg/m3 12.18 °C 69.27 % 4.69 m/s 249.63 Deg 0.03 µg/m3
2022-01-20 18:00 0.86 µg/m3 0.82 µg/m3 98.38 µg/m3 3.24 µg/m3 N/A 0.16 mg/m3 12.31 °C 73.24 % 4.51 m/s 228.85 Deg 0.02 µg/m3
2022-01-20 17:00 0.73 µg/m3 0.52 µg/m3 92.27 µg/m3 3.64 µg/m3 N/A 0.15 mg/m3 12.65 °C 74.72 % 4.12 m/s 189.47 Deg 0.04 µg/m3
2022-01-20 16:00 0.83 µg/m3 0.63 µg/m3 91.09 µg/m3 5.38 µg/m3 N/A 0.15 mg/m3 12.71 °C 72.96 % 2.92 m/s 222.35 Deg 0.05 µg/m3
2022-01-20 15:00 0.97 µg/m3 0.69 µg/m3 92.92 µg/m3 5.86 µg/m3 N/A 0.15 mg/m3 12.85 °C 71.3 % 2.47 m/s 186.25 Deg 0.06 µg/m3
2022-01-20 14:00 0.98 µg/m3 0.62 µg/m3 92.65 µg/m3 3.9 µg/m3 N/A 0.15 mg/m3 13.04 °C 71.5 % 2.54 m/s 151.95 Deg 0.09 µg/m3
2022-01-20 13:00 0.96 µg/m3 0.57 µg/m3 90.69 µg/m3 3.1 µg/m3 N/A 0.15 mg/m3 12.92 °C 70.03 % 2.02 m/s 236.19 Deg 0.07 µg/m3
2022-01-20 12:00 0.86 µg/m3 0.57 µg/m3 90.14 µg/m3 3.31 µg/m3 N/A 0.15 mg/m3 12.7 °C 71.93 % 2.05 m/s 174.42 Deg 0.06 µg/m3
2022-01-20 11:00 0.89 µg/m3 0.5 µg/m3 87.38 µg/m3 4.34 µg/m3 N/A 0.15 mg/m3 12.69 °C 75.5 % 1.75 m/s 263.6 Deg 0.09 µg/m3
2022-01-20 10:00 0.89 µg/m3 0.47 µg/m3 87.76 µg/m3 3.36 µg/m3 N/A 0.15 mg/m3 12.89 °C 74.53 % 2.06 m/s 208.72 Deg 0.12 µg/m3
2022-01-20 09:00 0.51 µg/m3 0.43 µg/m3 88.28 µg/m3 2.97 µg/m3 N/A 0.15 mg/m3 12.49 °C 72.67 % 2.78 m/s 216.66 Deg 0.05 µg/m3
2022-01-20 08:00 0.63 µg/m3 0.44 µg/m3 89.84 µg/m3 3.56 µg/m3 N/A 0.15 mg/m3 11.98 °C 74.84 % 2.7 m/s 208.39 Deg 0.03 µg/m3
2022-01-20 07:00 2.09 µg/m3 0.52 µg/m3 93.03 µg/m3 3.56 µg/m3 N/A 0.15 mg/m3 11.98 °C 74.26 % 1.05 m/s 198.97 Deg 0.03 µg/m3
2022-01-20 06:00 1.57 µg/m3 0.45 µg/m3 96.39 µg/m3 4.03 µg/m3 N/A 0.15 mg/m3 12.06 °C 74.72 % 0.83 m/s 212.23 Deg 0.02 µg/m3
2022-01-20 05:00 0.61 µg/m3 0.46 µg/m3 96.88 µg/m3 4.24 µg/m3 N/A 0.16 mg/m3 12.02 °C 75.05 % 1.18 m/s 259.63 Deg 0.02 µg/m3
2022-01-20 04:00 0.62 µg/m3 0.5 µg/m3 97.76 µg/m3 3.93 µg/m3 N/A 0.13 mg/m3 12.1 °C 75.28 % 0.96 m/s 241.5 Deg 0.02 µg/m3
2022-01-20 03:00 0.74 µg/m3 0.51 µg/m3 97.9 µg/m3 4.01 µg/m3 N/A 0.13 mg/m3 12.21 °C 76.07 % 0.8 m/s 266.74 Deg 0.02 µg/m3
2022-01-20 02:00 0.86 µg/m3 0.45 µg/m3 94.18 µg/m3 3.36 µg/m3 N/A 0.14 mg/m3 12.08 °C 79.33 % 1.15 m/s 282.93 Deg 0.03 µg/m3
2022-01-20 01:00 0.81 µg/m3 0.44 µg/m3 91.66 µg/m3 3.55 µg/m3 N/A 0.14 mg/m3 11.94 °C 81.8 % 0.89 m/s 226.76 Deg 0.04 µg/m3
2022-01-20 00:00 0.9 µg/m3 0.45 µg/m3 87.79 µg/m3 3.69 µg/m3 N/A 0.16 mg/m3 12.12 °C 82 % 2.09 m/s 169.28 Deg 0.03 µg/m3
2022-01-19 23:00 0.98 µg/m3 0.44 µg/m3 90.01 µg/m3 3.69 µg/m3 N/A 0.16 mg/m3 12.09 °C 82.04 % 3.06 m/s 161.2 Deg 0.03 µg/m3
2022-01-19 22:00 1.63 µg/m3 0.42 µg/m3 86.62 µg/m3 4.36 µg/m3 N/A 0.17 mg/m3 12.1 °C 82.4 % 2.72 m/s 157.07 Deg 0.04 µg/m3
2022-01-19 21:00 2.79 µg/m3 0.51 µg/m3 85.45 µg/m3 6.5 µg/m3 N/A 0.17 mg/m3 12.03 °C 80.93 % 2.95 m/s 158.35 Deg 0.04 µg/m3
2022-01-19 20:00 8.03 µg/m3 0.57 µg/m3 79.4 µg/m3 11.83 µg/m3 N/A 0.2 mg/m3 11.85 °C 81.78 % 3.58 m/s 143.64 Deg 0.07 µg/m3
2022-01-19 19:00 19.95 µg/m3 0.57 µg/m3 68.44 µg/m3 10.09 µg/m3 N/A 0.27 mg/m3 12.27 °C 75.85 % 2.27 m/s 115.62 Deg 0.11 µg/m3
2022-01-19 18:00 3.84 µg/m3 0.55 µg/m3 82.4 µg/m3 8.41 µg/m3 N/A 0.16 mg/m3 12.43 °C 74.1 % 2.41 m/s 172.15 Deg 0.04 µg/m3
2022-01-19 17:00 5.63 µg/m3 0.58 µg/m3 82.97 µg/m3 7.07 µg/m3 N/A 0.18 mg/m3 12.79 °C 74.33 % 2.49 m/s 114.51 Deg 0.15 µg/m3
2022-01-19 16:00 4.14 µg/m3 0.63 µg/m3 85.75 µg/m3 8.22 µg/m3 N/A 0.17 mg/m3 12.91 °C 74.15 % 2.54 m/s 112.79 Deg 0.19 µg/m3
2022-01-19 15:00 6.27 µg/m3 0.71 µg/m3 84.56 µg/m3 8.16 µg/m3 N/A 0.18 mg/m3 13.18 °C 71.85 % 2.43 m/s 96.75 Deg 0.64 µg/m3
2022-01-19 14:00 9.45 µg/m3 0.8 µg/m3 78.96 µg/m3 6.58 µg/m3 N/A 0.19 mg/m3 13.41 °C 73.67 % 2.25 m/s 127.94 Deg 1.5 µg/m3
2022-01-19 13:00 6.65 µg/m3 0.75 µg/m3 80.05 µg/m3 5.06 µg/m3 N/A 0.19 mg/m3 13.12 °C 75.14 % 2.03 m/s 166.92 Deg 1.16 µg/m3
2022-01-19 12:00 2.55 µg/m3 0.66 µg/m3 83.08 µg/m3 6.37 µg/m3 N/A 0.18 mg/m3 12.16 °C 82.23 % 2.98 m/s 242.99 Deg 0.39 µg/m3
2022-01-19 11:00 3.63 µg/m3 0.6 µg/m3 75.45 µg/m3 7.95 µg/m3 N/A 0.19 mg/m3 11.22 °C 87.64 % 3.59 m/s 103.08 Deg 0.32 µg/m3
2022-01-19 10:00 11.58 µg/m3 0.63 µg/m3 62.91 µg/m3 10.1 µg/m3 N/A 0.22 mg/m3 11.76 °C 81.17 % 2.32 m/s 175.88 Deg 0.87 µg/m3
2022-01-19 09:00 17.76 µg/m3 0.63 µg/m3 60.15 µg/m3 8.25 µg/m3 N/A 0.24 mg/m3 11.4 °C 80.82 % 2.43 m/s 115.37 Deg 1.37 µg/m3
2022-01-19 08:00 N/A 0.59 µg/m3 76.41 µg/m3 N/A N/A N/A 11.43 °C 78.23 % 2.04 m/s 127.74 Deg N/A
2022-01-19 07:00 N/A 0.52 µg/m3 80.8 µg/m3 N/A N/A N/A 11.81 °C 73.06 % 1.96 m/s 111.73 Deg N/A
2022-01-19 06:00 N/A 0.52 µg/m3 85.19 µg/m3 N/A N/A N/A 12.13 °C 70.64 % 1.9 m/s 39.36 Deg N/A
2022-01-19 05:00 N/A 0.55 µg/m3 85.76 µg/m3 N/A N/A N/A 11.98 °C 70.61 % 1.78 m/s 102.43 Deg N/A
2022-01-19 04:00 N/A 0.64 µg/m3 86.34 µg/m3 N/A N/A N/A 11.89 °C 71.14 % 1.42 m/s 25.28 Deg N/A
2022-01-19 03:00 N/A 0.72 µg/m3 87.74 µg/m3 N/A N/A N/A 12.09 °C 69.98 % 1.19 m/s 18.02 Deg N/A
2022-01-19 02:00 N/A 0.76 µg/m3 89.39 µg/m3 N/A N/A N/A 12.17 °C 68.86 % 0.67 m/s 189.73 Deg N/A
2022-01-19 01:00 N/A 0.47 µg/m3 93.14 µg/m3 N/A N/A N/A 12.22 °C 68.11 % 0.11 m/s 320.95 Deg N/A
2022-01-19 00:00 N/A 0.44 µg/m3 89.13 µg/m3 N/A N/A N/A 12.18 °C 67.52 % 0.24 m/s 116.09 Deg N/A
2022-01-18 23:00 N/A 0.34 µg/m3 92.82 µg/m3 N/A N/A N/A 12.3 °C 66.37 % 0.69 m/s 224.62 Deg N/A
2022-01-18 22:00 N/A N/A N/A N/A N/A N/A 12.27 °C 66.4 % 0.9 m/s 185.66 Deg N/A
2022-01-18 21:00 N/A N/A N/A N/A N/A N/A 12.27 °C 66.01 % 0.93 m/s 255.73 Deg N/A
2022-01-18 20:00 N/A N/A N/A N/A N/A N/A 12.33 °C 66.04 % 1.61 m/s 292.73 Deg N/A
2022-01-18 19:00 N/A N/A N/A N/A N/A N/A 12.22 °C 67.01 % 1.71 m/s 295.02 Deg N/A
2022-01-18 18:00 N/A N/A N/A N/A N/A N/A 12.22 °C 68.74 % 2.31 m/s 218.14 Deg N/A
2022-01-18 17:00 N/A N/A N/A N/A N/A N/A 12.28 °C 70.69 % 2.69 m/s 356.44 Deg N/A
2022-01-12 19:00 N/A N/A N/A N/A N/A N/A 10.87 °C 85.48 % 3.69 m/s 59.48 Deg N/A
2022-01-12 18:00 N/A N/A N/A N/A N/A N/A 10.79 °C 86.96 % 4.06 m/s 175.58 Deg N/A
2022-01-12 17:00 N/A N/A N/A N/A N/A N/A 12.39 °C 78.52 % 2.86 m/s 246.02 Deg N/A
2022-01-12 16:00 N/A N/A N/A N/A N/A N/A 12.72 °C 74.18 % 2.26 m/s 261.51 Deg N/A
2022-01-12 15:00 N/A N/A N/A N/A N/A N/A 12.94 °C 73.22 % 2.65 m/s 126.57 Deg N/A
2022-01-12 01:00 N/A N/A N/A N/A N/A N/A 12.42 °C 74.05 % 5.72 m/s 336.62 Deg N/A
2022-01-12 00:00 N/A N/A N/A N/A N/A N/A 12.46 °C 73.2 % 6.17 m/s 330.75 Deg N/A
2022-01-11 23:00 N/A N/A N/A N/A N/A N/A 12.55 °C 71.98 % 7.11 m/s 334.88 Deg N/A
2022-01-11 22:00 N/A N/A N/A N/A N/A N/A 12.62 °C 71.71 % 7.81 m/s 335.37 Deg N/A
2022-01-11 21:00 N/A N/A N/A N/A N/A N/A 12.64 °C 70.95 % 7.74 m/s 338.43 Deg N/A
2022-01-11 20:00 N/A N/A N/A N/A N/A N/A 12.78 °C 70.12 % 8.05 m/s 333.38 Deg N/A
2022-01-11 19:00 N/A N/A N/A N/A N/A N/A 13.03 °C 68.93 % 7.54 m/s 341.77 Deg N/A
2022-01-11 18:00 N/A N/A N/A N/A N/A N/A 12.98 °C 69.74 % 7.18 m/s 329.44 Deg N/A
2022-01-11 17:00 N/A N/A N/A N/A 2.63 µg/m3 N/A 13.05 °C 71.03 % 9.68 m/s 326.97 Deg N/A
2022-01-10 06:00 N/A N/A N/A N/A 5.73 µg/m3 N/A 8.2 °C 96.12 % 8.01 m/s 298.37 Deg N/A
2022-01-10 05:00 N/A N/A N/A N/A 5.3 µg/m3 0.17 mg/m3 8.28 °C 95.45 % 9.86 m/s 309.56 Deg N/A
2022-01-10 04:00 N/A 0.31 µg/m3 88.71 µg/m3 N/A 5.73 µg/m3 0.13 mg/m3 9.48 °C 89.01 % 7.96 m/s 306.49 Deg N/A
2022-01-10 03:00 N/A 0.35 µg/m3 90.69 µg/m3 N/A 7.06 µg/m3 0.17 mg/m3 9.92 °C 81.39 % 9.98 m/s 286.1 Deg N/A
2022-01-10 02:00 0.69 µg/m3 0.34 µg/m3 88.76 µg/m3 N/A 6.29 µg/m3 0.16 mg/m3 10.29 °C 81.49 % 10.3 m/s 265.21 Deg 0.02 µg/m3
2022-01-10 01:00 1.01 µg/m3 0.32 µg/m3 87.99 µg/m3 N/A 7.32 µg/m3 0.17 mg/m3 11.56 °C 76.92 % 11.9 m/s 251.77 Deg 0.03 µg/m3
2022-01-10 00:00 0.39 µg/m3 0.33 µg/m3 91.01 µg/m3 N/A 4.55 µg/m3 0.16 mg/m3 11.67 °C 76.46 % 12.13 m/s 229.41 Deg 0.03 µg/m3
2022-01-09 23:00 0.22 µg/m3 0.37 µg/m3 91.4 µg/m3 N/A 4.25 µg/m3 0.16 mg/m3 12.18 °C 75.91 % 10.52 m/s 252.72 Deg 0.03 µg/m3
2022-01-09 22:00 0.4 µg/m3 0.35 µg/m3 91.87 µg/m3 N/A 3.8 µg/m3 0.16 mg/m3 10.95 °C 83.58 % 8.79 m/s 257.33 Deg 0.02 µg/m3
2022-01-09 21:00 0.67 µg/m3 0.33 µg/m3 91.72 µg/m3 N/A 4.87 µg/m3 0.16 mg/m3 9.12 °C 92.3 % 10.71 m/s 298.03 Deg 0.04 µg/m3
2022-01-09 20:00 1.06 µg/m3 0.34 µg/m3 87.58 µg/m3 N/A 5.02 µg/m3 0.17 mg/m3 11.71 °C 83.26 % 10.21 m/s 273.49 Deg 0.03 µg/m3
2022-01-09 19:00 3.23 µg/m3 0.4 µg/m3 83.88 µg/m3 N/A 4.61 µg/m3 0.18 mg/m3 13.33 °C 76.92 % 11.62 m/s 278.14 Deg 0.03 µg/m3
2022-01-09 18:00 1.63 µg/m3 0.32 µg/m3 85.55 µg/m3 N/A 6.05 µg/m3 0.18 mg/m3 13.3 °C 78 % 11.7 m/s 279.85 Deg 0.03 µg/m3
2022-01-09 17:00 1.68 µg/m3 0.32 µg/m3 86.04 µg/m3 N/A 5.37 µg/m3 0.17 mg/m3 13.23 °C 75.37 % 12.66 m/s 279.78 Deg 0.06 µg/m3
2022-01-09 16:00 1.04 µg/m3 0.34 µg/m3 87.87 µg/m3 N/A 5.19 µg/m3 0.17 mg/m3 13.17 °C 77.14 % 11.57 m/s 282.25 Deg 0.06 µg/m3
2022-01-09 15:00 0.94 µg/m3 0.35 µg/m3 85.33 µg/m3 N/A 4.23 µg/m3 0.16 mg/m3 13.15 °C 78.82 % 10.57 m/s 282.97 Deg 0.1 µg/m3
2022-01-09 14:00 0.71 µg/m3 0.36 µg/m3 85.74 µg/m3 N/A 4.66 µg/m3 0.16 mg/m3 13.4 °C 72.73 % 9.38 m/s 286.55 Deg 0.12 µg/m3
2022-01-09 13:00 0.87 µg/m3 0.41 µg/m3 84.53 µg/m3 N/A 5.26 µg/m3 0.16 mg/m3 13.3 °C 73.71 % 9.04 m/s 231.49 Deg 0.18 µg/m3
2022-01-09 12:00 0.68 µg/m3 0.41 µg/m3 81.88 µg/m3 N/A 3.98 µg/m3 0.17 mg/m3 13.43 °C 70.18 % 8.65 m/s 236.03 Deg 0.15 µg/m3
2022-01-09 11:00 0.76 µg/m3 0.4 µg/m3 77.51 µg/m3 N/A 4.33 µg/m3 0.18 mg/m3 12.88 °C 74.15 % 7.8 m/s 281.79 Deg 0.14 µg/m3
2022-01-09 10:00 0.74 µg/m3 0.37 µg/m3 78.14 µg/m3 N/A 5.34 µg/m3 0.18 mg/m3 12.54 °C 72.59 % 8.89 m/s 283.16 Deg 0.13 µg/m3
2022-01-09 09:00 0.93 µg/m3 0.4 µg/m3 79.62 µg/m3 N/A 4.11 µg/m3 0.18 mg/m3 12.24 °C 71.48 % 9.42 m/s 277.48 Deg 0.1 µg/m3
2022-01-09 08:00 1.3 µg/m3 0.36 µg/m3 80.49 µg/m3 N/A 4.78 µg/m3 0.17 mg/m3 12.04 °C 71.19 % 9.34 m/s 288.5 Deg 0.04 µg/m3
2022-01-09 07:00 0.53 µg/m3 0.37 µg/m3 81.72 µg/m3 N/A 5.27 µg/m3 0.17 mg/m3 12.02 °C 71.14 % 9.56 m/s 279.78 Deg 0.03 µg/m3
2022-01-09 06:00 0.41 µg/m3 0.37 µg/m3 82.54 µg/m3 N/A 4.64 µg/m3 0.17 mg/m3 11.94 °C 68.83 % 10.51 m/s 291.02 Deg 0.03 µg/m3
2022-01-09 05:00 0.56 µg/m3 0.35 µg/m3 84.33 µg/m3 N/A 4.91 µg/m3 0.17 mg/m3 11.97 °C 66.76 % 11.35 m/s 293.64 Deg 0.03 µg/m3
2022-01-09 04:00 0.77 µg/m3 0.39 µg/m3 86.96 µg/m3 N/A 4.54 µg/m3 0.14 mg/m3 11.91 °C 60.45 % 11.97 m/s 256.61 Deg 0.04 µg/m3
2022-01-09 03:00 0.81 µg/m3 0.35 µg/m3 87.78 µg/m3 N/A 4.01 µg/m3 0.19 mg/m3 11.94 °C 62.55 % 11.06 m/s 316.42 Deg 0.05 µg/m3
2022-01-09 02:00 0.99 µg/m3 0.36 µg/m3 86.5 µg/m3 N/A 4.74 µg/m3 0.18 mg/m3 11.82 °C 66.02 % 9.85 m/s 315.41 Deg 0.03 µg/m3
2022-01-09 01:00 1.07 µg/m3 0.34 µg/m3 85.2 µg/m3 N/A 4.21 µg/m3 0.19 mg/m3 11.78 °C 66.04 % 9.19 m/s 278.54 Deg 0.02 µg/m3
2022-01-09 00:00 1.98 µg/m3 0.36 µg/m3 83.93 µg/m3 N/A 4.93 µg/m3 0.19 mg/m3 11.81 °C 60.27 % 8.3 m/s 249.46 Deg 0.03 µg/m3
2022-01-08 23:00 1.74 µg/m3 0.4 µg/m3 81.51 µg/m3 N/A 4.94 µg/m3 0.2 mg/m3 11.92 °C 63.78 % 7.66 m/s 326.49 Deg 0.03 µg/m3
2022-01-08 22:00 1.62 µg/m3 0.35 µg/m3 80.84 µg/m3 N/A 4.76 µg/m3 0.19 mg/m3 12.02 °C 64.39 % 7.57 m/s 278.17 Deg 0.04 µg/m3
2022-01-08 21:00 1.43 µg/m3 0.34 µg/m3 81.66 µg/m3 N/A 4.11 µg/m3 0.19 mg/m3 12.09 °C 63.99 % 9.29 m/s 286.56 Deg 0.02 µg/m3
2022-01-08 20:00 1.56 µg/m3 0.31 µg/m3 79.37 µg/m3 N/A 4.25 µg/m3 0.19 mg/m3 12.2 °C 65.4 % 8.48 m/s 235.3 Deg 0.03 µg/m3
2022-01-08 19:00 0.98 µg/m3 0.34 µg/m3 80.47 µg/m3 N/A 4.47 µg/m3 0.18 mg/m3 12.19 °C 63.95 % 7.75 m/s 319.14 Deg 0.03 µg/m3
2022-01-08 18:00 1.24 µg/m3 0.32 µg/m3 80.67 µg/m3 N/A 3.66 µg/m3 0.19 mg/m3 12.24 °C 66.68 % 7.83 m/s 318.02 Deg 0.02 µg/m3
2022-01-08 17:00 1.36 µg/m3 0.29 µg/m3 80.17 µg/m3 N/A 3.06 µg/m3 0.19 mg/m3 11.84 °C 72.08 % 8.93 m/s 314.68 Deg 0.05 µg/m3
2022-01-08 16:00 0.89 µg/m3 0.3 µg/m3 80.97 µg/m3 N/A 3.84 µg/m3 0.18 mg/m3 12.7 °C 67.67 % 10.23 m/s 314.14 Deg 0.1 µg/m3
2022-01-08 15:00 0.93 µg/m3 0.32 µg/m3 81.57 µg/m3 N/A 3.6 µg/m3 0.19 mg/m3 12.55 °C 69.39 % 10.88 m/s 289.85 Deg 0.12 µg/m3
2022-01-08 14:00 0.92 µg/m3 0.36 µg/m3 80.8 µg/m3 N/A 3.04 µg/m3 0.18 mg/m3 12.55 °C 70.81 % 10.66 m/s 266.17 Deg 0.15 µg/m3
2022-01-08 13:00 1.77 µg/m3 0.3 µg/m3 80.41 µg/m3 N/A 3.05 µg/m3 0.18 mg/m3 12.52 °C 70.2 % 10.43 m/s 284.59 Deg 0.29 µg/m3
2022-01-08 12:00 0.59 µg/m3 0.3 µg/m3 80.32 µg/m3 N/A 4.04 µg/m3 0.18 mg/m3 12.73 °C 68.31 % 10.02 m/s 254.45 Deg 0.11 µg/m3
2022-01-08 11:00 2 µg/m3 0.36 µg/m3 79.45 µg/m3 N/A 4.16 µg/m3 0.18 mg/m3 12.82 °C 69.97 % 9.88 m/s 254.04 Deg 0.41 µg/m3
2022-01-08 10:00 1.23 µg/m3 0.34 µg/m3 79.36 µg/m3 N/A 4.17 µg/m3 0.18 mg/m3 12.66 °C 72.34 % 10.24 m/s 205.2 Deg 0.2 µg/m3
2022-01-08 09:00 0.86 µg/m3 0.3 µg/m3 81.11 µg/m3 N/A 3.94 µg/m3 0.18 mg/m3 12.64 °C 72.41 % 10.24 m/s 287.71 Deg 0.07 µg/m3
2022-01-08 08:00 0.87 µg/m3 0.31 µg/m3 82.3 µg/m3 N/A 4.19 µg/m3 0.18 mg/m3 12.72 °C 74.92 % 10.94 m/s 311.73 Deg 0.05 µg/m3
2022-01-08 07:00 1.5 µg/m3 0.37 µg/m3 81.28 µg/m3 N/A 4.03 µg/m3 0.18 mg/m3 12.89 °C 78.09 % 10.1 m/s 298.11 Deg 0.03 µg/m3
2022-01-08 06:00 1.54 µg/m3 0.36 µg/m3 81.08 µg/m3 N/A 4.33 µg/m3 0.18 mg/m3 12.9 °C 78.27 % 10.32 m/s 324.78 Deg 0.03 µg/m3
2022-01-08 05:00 1 µg/m3 0.31 µg/m3 80.27 µg/m3 N/A 4.95 µg/m3 0.18 mg/m3 12.76 °C 80.62 % 9.99 m/s 321.17 Deg 0.03 µg/m3
2022-01-08 04:00 1.19 µg/m3 0.35 µg/m3 79.27 µg/m3 N/A 4.59 µg/m3 0.15 mg/m3 12.76 °C 80.19 % 10.04 m/s 311.66 Deg 0.03 µg/m3
2022-01-08 03:00 2.07 µg/m3 0.32 µg/m3 77.74 µg/m3 N/A 5.05 µg/m3 0.19 mg/m3 12.87 °C 80.21 % 10.28 m/s 325.94 Deg 0.04 µg/m3
2022-01-08 02:00 2.76 µg/m3 0.34 µg/m3 76.95 µg/m3 N/A 5.15 µg/m3 0.19 mg/m3 12.94 °C 80.64 % 9.52 m/s 324.79 Deg 0.03 µg/m3
2022-01-08 01:00 2.32 µg/m3 0.36 µg/m3 75.36 µg/m3 N/A 4.06 µg/m3 0.19 mg/m3 13.01 °C 79.13 % 9.04 m/s 325.98 Deg 0.04 µg/m3
2022-01-08 00:00 2.99 µg/m3 0.35 µg/m3 75.47 µg/m3 N/A 3.53 µg/m3 0.18 mg/m3 12.95 °C 77.22 % 8.16 m/s 331.77 Deg 0.04 µg/m3
2022-01-07 23:00 2.36 µg/m3 0.32 µg/m3 77.18 µg/m3 N/A 3.62 µg/m3 0.18 mg/m3 12.99 °C 77 % 7.61 m/s 337.19 Deg 0.03 µg/m3
2022-01-07 22:00 1.46 µg/m3 0.31 µg/m3 75.9 µg/m3 N/A 3.31 µg/m3 0.18 mg/m3 12.91 °C 77.83 % 6.92 m/s 328.99 Deg 0.04 µg/m3
2022-01-07 21:00 1.08 µg/m3 0.36 µg/m3 74.75 µg/m3 N/A 3.16 µg/m3 0.18 mg/m3 12.95 °C 77.88 % 6.18 m/s 314.38 Deg 0.04 µg/m3
2022-01-07 20:00 2.44 µg/m3 0.36 µg/m3 77.68 µg/m3 N/A 3.08 µg/m3 0.17 mg/m3 12.88 °C 76.67 % 6.4 m/s 328.32 Deg 0.04 µg/m3
2022-01-07 19:00 1.86 µg/m3 0.32 µg/m3 78.1 µg/m3 N/A 4.46 µg/m3 0.17 mg/m3 12.66 °C 78.13 % 7.47 m/s 347.86 Deg 0.03 µg/m3
2022-01-07 18:00 4.34 µg/m3 0.39 µg/m3 77.28 µg/m3 N/A 4.58 µg/m3 0.17 mg/m3 12.77 °C 78.73 % 8.21 m/s 341.53 Deg 0.04 µg/m3
2022-01-07 17:00 1.59 µg/m3 0.32 µg/m3 82.07 µg/m3 N/A 4.18 µg/m3 0.17 mg/m3 12.56 °C 81.48 % 9.25 m/s 319.12 Deg 0.05 µg/m3
2022-01-07 16:00 1.88 µg/m3 0.32 µg/m3 80.6 µg/m3 N/A 3.8 µg/m3 0.17 mg/m3 12.16 °C 84.16 % 9.14 m/s 305.28 Deg 0.1 µg/m3
2022-01-07 15:00 1.82 µg/m3 0.34 µg/m3 80.59 µg/m3 N/A 3.94 µg/m3 0.17 mg/m3 12.14 °C 84.8 % 8.32 m/s 325.86 Deg 0.12 µg/m3
2022-01-07 14:00 2.25 µg/m3 0.36 µg/m3 80.13 µg/m3 N/A 3.23 µg/m3 0.16 mg/m3 12.05 °C 85.24 % 8.73 m/s 316.21 Deg 0.22 µg/m3
2022-01-07 13:00 1.67 µg/m3 0.32 µg/m3 80.54 µg/m3 N/A 3.01 µg/m3 0.16 mg/m3 12.23 °C 85.98 % 8.8 m/s 299.91 Deg 0.1 µg/m3
2022-01-07 12:00 1.18 µg/m3 0.41 µg/m3 80.54 µg/m3 N/A 3.43 µg/m3 0.16 mg/m3 12.55 °C 83.9 % 6.91 m/s 337.36 Deg 0.07 µg/m3
2022-01-07 11:00 3.24 µg/m3 0.46 µg/m3 74.96 µg/m3 N/A 3.81 µg/m3 0.17 mg/m3 12.47 °C 85.61 % 6.67 m/s 321.16 Deg 0.19 µg/m3
2022-01-07 10:00 2.32 µg/m3 0.4 µg/m3 71.83 µg/m3 N/A 3.76 µg/m3 0.17 mg/m3 12.41 °C 86.96 % 7.66 m/s 345.21 Deg 0.13 µg/m3
2022-01-07 09:00 1.49 µg/m3 0.44 µg/m3 74.98 µg/m3 N/A 4.1 µg/m3 0.17 mg/m3 12.33 °C 87.47 % 7.75 m/s 347.68 Deg 0.07 µg/m3
2022-01-07 08:00 1.51 µg/m3 0.37 µg/m3 73.44 µg/m3 N/A 4.26 µg/m3 0.17 mg/m3 12.33 °C 87.51 % 6.41 m/s 340.32 Deg 0.04 µg/m3
2022-01-07 07:00 1.07 µg/m3 0.38 µg/m3 79.01 µg/m3 N/A 4.31 µg/m3 0.16 mg/m3 12.35 °C 84.46 % 5.46 m/s 306.8 Deg 0.04 µg/m3
2022-01-07 06:00 2.2 µg/m3 0.38 µg/m3 75.42 µg/m3 N/A 4.11 µg/m3 0.16 mg/m3 12.29 °C 86.17 % 6.19 m/s 321.87 Deg 0.04 µg/m3
2022-01-07 05:00 1.63 µg/m3 0.36 µg/m3 72.48 µg/m3 N/A 4.35 µg/m3 0.18 mg/m3 12.32 °C 87.42 % 6.7 m/s 352.27 Deg 0.04 µg/m3
2022-01-07 04:00 2.79 µg/m3 0.35 µg/m3 68.93 µg/m3 N/A 5.3 µg/m3 0.15 mg/m3 12.68 °C 86.07 % 6.68 m/s 335.43 Deg 0.05 µg/m3
2022-01-07 03:00 2.08 µg/m3 0.33 µg/m3 72.8 µg/m3 N/A 4.35 µg/m3 0.2 mg/m3 12.83 °C 83.07 % 5.49 m/s 332.93 Deg 0.05 µg/m3
2022-01-07 02:00 1.42 µg/m3 0.32 µg/m3 76.69 µg/m3 N/A 4.51 µg/m3 0.19 mg/m3 12.62 °C 81.63 % 5.39 m/s 308.87 Deg 0.03 µg/m3
2022-01-07 01:00 1.43 µg/m3 0.34 µg/m3 79.84 µg/m3 N/A 4.59 µg/m3 0.18 mg/m3 12.58 °C 78.57 % 5.82 m/s 323.93 Deg 0.03 µg/m3
2022-01-07 00:00 2.01 µg/m3 0.34 µg/m3 80.22 µg/m3 N/A 5.4 µg/m3 0.19 mg/m3 12.71 °C 80.35 % 8.2 m/s 318.15 Deg 0.03 µg/m3
2022-01-06 23:00 1.24 µg/m3 0.32 µg/m3 82.21 µg/m3 N/A 4.94 µg/m3 0.18 mg/m3 12.79 °C 81.46 % 7.83 m/s 305.79 Deg 0.02 µg/m3
2022-01-06 22:00 2.82 µg/m3 0.36 µg/m3 80.18 µg/m3 N/A 4.27 µg/m3 0.18 mg/m3 12.97 °C 79.97 % 6.89 m/s 343.97 Deg 0.03 µg/m3
2022-01-06 21:00 1.92 µg/m3 0.32 µg/m3 81.34 µg/m3 N/A 4.03 µg/m3 0.18 mg/m3 12.61 °C 83.4 % 7.34 m/s 348.15 Deg 0.03 µg/m3
2022-01-06 20:00 4.82 µg/m3 0.28 µg/m3 76.94 µg/m3 N/A 3.67 µg/m3 0.18 mg/m3 12.32 °C 87.72 % 7.03 m/s 345.26 Deg 0.04 µg/m3
2022-01-06 19:00 4.74 µg/m3 0.32 µg/m3 75.78 µg/m3 N/A 5.82 µg/m3 0.18 mg/m3 12.65 °C 90.49 % 8.01 m/s 347.74 Deg 0.04 µg/m3
2022-01-06 18:00 5.42 µg/m3 0.36 µg/m3 76.67 µg/m3 N/A 5.48 µg/m3 0.18 mg/m3 13.26 °C 89.12 % 6.43 m/s 98.98 Deg 0.04 µg/m3
2022-01-06 17:00 4.52 µg/m3 0.36 µg/m3 77.64 µg/m3 N/A 4.91 µg/m3 0.18 mg/m3 13.24 °C 90.12 % 4.51 m/s 24.25 Deg 0.07 µg/m3
2022-01-06 16:00 2.31 µg/m3 0.39 µg/m3 80.41 µg/m3 N/A 5.47 µg/m3 0.18 mg/m3 14.06 °C 83.97 % 3.24 m/s 34.28 Deg 0.1 µg/m3
2022-01-06 15:00 5.73 µg/m3 0.48 µg/m3 79.06 µg/m3 N/A 5.22 µg/m3 0.18 mg/m3 15.47 °C 69.07 % 1.85 m/s 123.41 Deg 0.75 µg/m3
2022-01-06 14:00 2.83 µg/m3 0.43 µg/m3 82.8 µg/m3 N/A 5.77 µg/m3 0.17 mg/m3 15.74 °C 64.85 % 2.87 m/s 74.19 Deg 0.51 µg/m3
2022-01-06 13:00 1.64 µg/m3 0.47 µg/m3 79.4 µg/m3 N/A 5.71 µg/m3 0.17 mg/m3 15.37 °C 71.38 % 2.86 m/s 276.05 Deg 0.3 µg/m3
2022-01-06 12:00 1.66 µg/m3 0.43 µg/m3 77.81 µg/m3 N/A 5.93 µg/m3 0.18 mg/m3 14.8 °C 77.1 % 2.18 m/s 194.98 Deg 0.28 µg/m3
2022-01-06 11:00 1.78 µg/m3 0.38 µg/m3 74.59 µg/m3 N/A 5.23 µg/m3 0.18 mg/m3 14.42 °C 81.16 % 2.49 m/s 176.26 Deg 0.28 µg/m3
2022-01-06 10:00 3.73 µg/m3 0.39 µg/m3 70.59 µg/m3 N/A 5.26 µg/m3 0.18 mg/m3 13.89 °C 82.33 % 2.87 m/s 55.95 Deg 0.46 µg/m3
2022-01-06 09:00 2.58 µg/m3 0.39 µg/m3 71.49 µg/m3 N/A 5.28 µg/m3 0.17 mg/m3 13.59 °C 82.47 % 3.48 m/s 21.26 Deg 0.24 µg/m3
2022-01-06 08:00 2.85 µg/m3 0.36 µg/m3 74.16 µg/m3 N/A 5.26 µg/m3 0.17 mg/m3 13.4 °C 82.75 % 3.4 m/s 13.97 Deg 0.07 µg/m3
2022-01-06 07:00 1.59 µg/m3 0.43 µg/m3 75.73 µg/m3 N/A 4.62 µg/m3 0.17 mg/m3 13.38 °C 83.17 % 2.97 m/s 85.93 Deg 0.05 µg/m3
2022-01-06 06:00 5.44 µg/m3 0.48 µg/m3 73.11 µg/m3 N/A 4.34 µg/m3 0.16 mg/m3 13.46 °C 82.41 % 3.3 m/s 92.84 Deg 0.04 µg/m3
2022-01-06 05:00 2.41 µg/m3 0.38 µg/m3 77.73 µg/m3 N/A 5.09 µg/m3 0.17 mg/m3 13.57 °C 80.41 % 2.78 m/s 345.58 Deg 0.03 µg/m3
2022-01-06 04:00 2.89 µg/m3 0.43 µg/m3 78.14 µg/m3 N/A 4.89 µg/m3 0.14 mg/m3 13.66 °C 79.81 % 3.31 m/s 322.29 Deg 0.04 µg/m3
2022-01-06 03:00 2.16 µg/m3 0.38 µg/m3 81.15 µg/m3 N/A 4.18 µg/m3 0.17 mg/m3 13.78 °C 78.61 % 3.41 m/s 313.94 Deg 0.03 µg/m3
2022-01-06 02:00 1.53 µg/m3 0.4 µg/m3 84.94 µg/m3 N/A 4.55 µg/m3 0.17 mg/m3 13.88 °C 78.12 % 3.78 m/s 317.88 Deg 0.03 µg/m3
2022-01-06 01:00 1.42 µg/m3 0.44 µg/m3 88.45 µg/m3 N/A 6.03 µg/m3 0.17 mg/m3 13.96 °C 78.1 % 3.55 m/s 302.55 Deg 0.03 µg/m3
2022-01-06 00:00 2.44 µg/m3 0.45 µg/m3 86.17 µg/m3 N/A 5.9 µg/m3 0.17 mg/m3 14.29 °C 77.55 % 4.17 m/s 326.48 Deg 0.03 µg/m3
2022-01-05 23:00 4.18 µg/m3 0.49 µg/m3 82.07 µg/m3 N/A 5.66 µg/m3 0.17 mg/m3 14.61 °C 79.65 % 4.69 m/s 334.7 Deg 0.04 µg/m3
2022-01-05 22:00 4.01 µg/m3 0.44 µg/m3 81.46 µg/m3 N/A 4.54 µg/m3 0.17 mg/m3 14.62 °C 83.14 % 4.32 m/s 289.17 Deg 0.03 µg/m3
2022-01-05 21:00 2.81 µg/m3 0.57 µg/m3 76.98 µg/m3 N/A 5.09 µg/m3 0.17 mg/m3 14.68 °C 83.88 % 3.12 m/s 272.24 Deg 0.04 µg/m3
2022-01-05 20:00 1.85 µg/m3 0.58 µg/m3 79.74 µg/m3 N/A 5.19 µg/m3 0.17 mg/m3 14.8 °C 85.16 % 2.93 m/s 233.25 Deg 0.03 µg/m3
2022-01-05 19:00 1.29 µg/m3 0.72 µg/m3 85.82 µg/m3 N/A 6.21 µg/m3 0.17 mg/m3 14.79 °C 86.65 % 3.83 m/s 245.52 Deg 0.04 µg/m3
2022-01-05 18:00 1.34 µg/m3 1.51 µg/m3 92.16 µg/m3 N/A 5.94 µg/m3 0.17 mg/m3 14.93 °C 86.57 % 4.71 m/s 249.63 Deg 0.02 µg/m3
2022-01-05 17:00 1.08 µg/m3 1.38 µg/m3 90.9 µg/m3 N/A 5.55 µg/m3 0.16 mg/m3 15.37 °C 82.24 % 5.61 m/s 232.16 Deg 0.04 µg/m3
2022-01-05 16:00 0.69 µg/m3 0.48 µg/m3 87.99 µg/m3 N/A 5.46 µg/m3 0.16 mg/m3 15.77 °C 83.03 % 5.82 m/s 194.12 Deg 0.07 µg/m3
2022-01-05 15:00 0.41 µg/m3 0.38 µg/m3 83.77 µg/m3 N/A 5.66 µg/m3 0.16 mg/m3 15.97 °C 84.1 % 5.61 m/s 171.07 Deg 0.07 µg/m3
2022-01-05 14:00 0.37 µg/m3 0.39 µg/m3 82.28 µg/m3 N/A 5.27 µg/m3 0.16 mg/m3 16.11 °C 82.33 % 6.29 m/s 179.3 Deg 0.08 µg/m3
2022-01-05 13:00 1.04 µg/m3 0.41 µg/m3 81.94 µg/m3 N/A 5.57 µg/m3 0.16 mg/m3 16.15 °C 82.12 % 7.11 m/s 180.04 Deg 0.27 µg/m3
2022-01-05 12:00 0.42 µg/m3 0.51 µg/m3 82.4 µg/m3 N/A 5.37 µg/m3 0.16 mg/m3 16.15 °C 81.28 % 7.67 m/s 154.81 Deg 0.12 µg/m3
2022-01-05 11:00 0.43 µg/m3 0.49 µg/m3 80.27 µg/m3 N/A 5.93 µg/m3 0.16 mg/m3 16.13 °C 80.38 % 7.98 m/s 163.12 Deg 0.11 µg/m3
2022-01-05 10:00 0.42 µg/m3 0.5 µg/m3 79.05 µg/m3 N/A 5.9 µg/m3 0.16 mg/m3 15.98 °C 80.05 % 7.98 m/s 162.42 Deg 0.11 µg/m3
2022-01-05 09:00 0.34 µg/m3 0.4 µg/m3 78.87 µg/m3 N/A 5.78 µg/m3 0.16 mg/m3 15.65 °C 80.93 % 8.18 m/s 193.48 Deg 0.09 µg/m3
2022-01-05 08:00 0.2 µg/m3 0.36 µg/m3 82.01 µg/m3 N/A 5.6 µg/m3 0.16 mg/m3 15.31 °C 82.59 % 7.93 m/s 193.33 Deg 0.04 µg/m3
2022-01-05 07:00 0.29 µg/m3 0.41 µg/m3 85.07 µg/m3 N/A 5.78 µg/m3 0.16 mg/m3 15.3 °C 81.81 % 8.49 m/s 202.28 Deg 0.03 µg/m3
2022-01-05 06:00 0.59 µg/m3 0.38 µg/m3 86.69 µg/m3 N/A 5.16 µg/m3 0.16 mg/m3 15.26 °C 83.02 % 8 m/s 201.85 Deg 0.03 µg/m3
2022-01-05 05:00 0.66 µg/m3 0.41 µg/m3 87.9 µg/m3 N/A 5.91 µg/m3 0.17 mg/m3 15.24 °C 84.39 % 7.52 m/s 204.96 Deg 0.03 µg/m3
2022-01-05 04:00 0.72 µg/m3 0.42 µg/m3 89.57 µg/m3 N/A 6.56 µg/m3 0.14 mg/m3 15.18 °C 86.28 % 7.19 m/s 206.98 Deg 0.04 µg/m3
2022-01-05 03:00 0.85 µg/m3 0.41 µg/m3 90.6 µg/m3 N/A 6.1 µg/m3 0.19 mg/m3 15.17 °C 87.08 % 6.93 m/s 207.42 Deg 0.03 µg/m3
2022-01-05 02:00 0.82 µg/m3 0.44 µg/m3 90.43 µg/m3 N/A 5.91 µg/m3 0.18 mg/m3 15.06 °C 88.25 % 6.84 m/s 196.73 Deg 0.03 µg/m3
2022-01-05 01:00 1 µg/m3 0.45 µg/m3 97.38 µg/m3 N/A 6.76 µg/m3 0.2 mg/m3 14.9 °C 89.68 % 6.5 m/s 207.42 Deg 0.04 µg/m3
2022-01-05 00:00 1.13 µg/m3 0.54 µg/m3 101.9 µg/m3 N/A 6.09 µg/m3 0.21 mg/m3 14.7 °C 91.07 % 6.09 m/s 211.61 Deg 0.04 µg/m3
2022-01-04 23:00 1.55 µg/m3 0.61 µg/m3 99.74 µg/m3 N/A 6.19 µg/m3 0.21 mg/m3 14.61 °C 92.84 % 6.43 m/s 210.6 Deg 0.03 µg/m3
2022-01-04 22:00 1.07 µg/m3 0.7 µg/m3 97.55 µg/m3 N/A 6.41 µg/m3 0.2 mg/m3 14.56 °C 94.27 % 6.22 m/s 208.26 Deg 0.03 µg/m3
2022-01-04 21:00 0.88 µg/m3 1.47 µg/m3 98.16 µg/m3 N/A 6.01 µg/m3 0.2 mg/m3 14.46 °C 94.68 % 6.16 m/s 195.42 Deg 0.04 µg/m3
2022-01-04 20:00 0.51 µg/m3 0.63 µg/m3 89.41 µg/m3 N/A 6.68 µg/m3 0.19 mg/m3 14.48 °C 93.82 % 5.98 m/s 204.19 Deg 0.03 µg/m3
2022-01-04 19:00 0.62 µg/m3 1.03 µg/m3 88.7 µg/m3 N/A 7.16 µg/m3 0.2 mg/m3 14.41 °C 92.56 % 5.28 m/s 208.86 Deg 0.04 µg/m3
2022-01-04 18:00 0.74 µg/m3 1.4 µg/m3 88.08 µg/m3 N/A 7.37 µg/m3 0.2 mg/m3 14.45 °C 90.93 % 5.07 m/s 211.34 Deg 0.03 µg/m3
2022-01-04 17:00 0.73 µg/m3 0.91 µg/m3 83.24 µg/m3 N/A 9.35 µg/m3 0.2 mg/m3 14.56 °C 90.52 % 5.01 m/s 213.19 Deg 0.03 µg/m3
2022-01-04 16:00 1.21 µg/m3 2.16 µg/m3 83.77 µg/m3 N/A 10.77 µg/m3 0.21 mg/m3 14.46 °C 90.44 % 5.14 m/s 213.58 Deg 0.05 µg/m3
2022-01-04 15:00 1.67 µg/m3 1.97 µg/m3 84.82 µg/m3 N/A 11.52 µg/m3 0.21 mg/m3 14.27 °C 90.07 % 5.2 m/s 222.29 Deg 0.09 µg/m3
2022-01-04 14:00 1.48 µg/m3 1.23 µg/m3 82.62 µg/m3 N/A 7.5 µg/m3 0.22 mg/m3 14.05 °C 89.15 % 5.61 m/s 226.74 Deg 0.09 µg/m3
2022-01-04 13:00 1.01 µg/m3 0.4 µg/m3 80.64 µg/m3 N/A 4.8 µg/m3 0.2 mg/m3 14.14 °C 86.91 % 5.74 m/s 208.33 Deg 0.09 µg/m3
2022-01-04 12:00 0.55 µg/m3 0.29 µg/m3 78.24 µg/m3 N/A 4.51 µg/m3 0.17 mg/m3 14.14 °C 85.17 % 5.17 m/s 210.37 Deg 0.1 µg/m3
2022-01-04 11:00 0.52 µg/m3 0.3 µg/m3 76 µg/m3 N/A N/A 0.16 mg/m3 13.89 °C 84.47 % 4.94 m/s 218.54 Deg 0.11 µg/m3
2022-01-04 10:00 0.68 µg/m3 0.31 µg/m3 72.89 µg/m3 N/A N/A 0.16 mg/m3 13.65 °C 84.25 % 4.83 m/s 227 Deg 0.13 µg/m3
2022-01-04 09:00 2.32 µg/m3 0.32 µg/m3 71.5 µg/m3 N/A N/A 0.15 mg/m3 13.4 °C 85.18 % 5.19 m/s 265.74 Deg 0.21 µg/m3
2022-01-04 08:00 0.52 µg/m3 0.27 µg/m3 75.84 µg/m3 N/A 3.83 µg/m3 0.15 mg/m3 13.14 °C 85.87 % 5.07 m/s 280.28 Deg 0.04 µg/m3
2022-01-04 07:00 0.42 µg/m3 0.29 µg/m3 76.55 µg/m3 N/A 4.59 µg/m3 0.14 mg/m3 13.09 °C 85.75 % 5.78 m/s 278.1 Deg 0.02 µg/m3
2022-01-04 06:00 0.53 µg/m3 0.31 µg/m3 75.52 µg/m3 N/A 3.97 µg/m3 0.13 mg/m3 13.06 °C 85.48 % 5.65 m/s 285.43 Deg 0.03 µg/m3
2022-01-04 05:00 0.98 µg/m3 0.31 µg/m3 74.54 µg/m3 N/A 3.73 µg/m3 0.13 mg/m3 13.1 °C 84.37 % 6.14 m/s 274.7 Deg 0.03 µg/m3
2022-01-04 04:00 1.55 µg/m3 0.35 µg/m3 72 µg/m3 N/A 3.44 µg/m3 0.11 mg/m3 13.03 °C 85.85 % 5.1 m/s 285.61 Deg 0.03 µg/m3
2022-01-04 03:00 0.73 µg/m3 0.28 µg/m3 74.69 µg/m3 N/A 4.11 µg/m3 0.14 mg/m3 12.83 °C 87.68 % 5.49 m/s 280.36 Deg 0.03 µg/m3
2022-01-04 02:00 0.45 µg/m3 0.29 µg/m3 75.74 µg/m3 N/A 4.26 µg/m3 0.14 mg/m3 12.9 °C 87.64 % 5.41 m/s 261.58 Deg 0.04 µg/m3
2022-01-04 01:00 0.76 µg/m3 0.3 µg/m3 75.71 µg/m3 N/A 4.3 µg/m3 0.15 mg/m3 12.99 °C 88.1 % 5.15 m/s 287.14 Deg 0.03 µg/m3
2022-01-04 00:00 0.53 µg/m3 0.28 µg/m3 75.8 µg/m3 N/A 3.51 µg/m3 0.14 mg/m3 13.06 °C 88.65 % 5.71 m/s 287.43 Deg 0.04 µg/m3
2022-01-03 23:00 0.7 µg/m3 0.27 µg/m3 74.89 µg/m3 N/A 3.98 µg/m3 0.14 mg/m3 12.97 °C 88.48 % 5.73 m/s 288.43 Deg 0.03 µg/m3
2022-01-03 22:00 2.44 µg/m3 0.34 µg/m3 71.84 µg/m3 N/A 3.7 µg/m3 0.14 mg/m3 13.14 °C 88.19 % 6.17 m/s 296.53 Deg 0.03 µg/m3
2022-01-03 21:00 0.52 µg/m3 0.31 µg/m3 74.78 µg/m3 N/A 4.08 µg/m3 0.14 mg/m3 13.25 °C 88.25 % 6.53 m/s 285.89 Deg 0.02 µg/m3
2022-01-03 20:00 0.18 µg/m3 0.27 µg/m3 75.84 µg/m3 N/A 4.17 µg/m3 0.14 mg/m3 13.33 °C 88.1 % 6.49 m/s 291.87 Deg 0.03 µg/m3
2022-01-03 19:00 0.41 µg/m3 0.27 µg/m3 76.14 µg/m3 N/A 4.13 µg/m3 0.14 mg/m3 13.31 °C 87.13 % 6.74 m/s 296.39 Deg 0.03 µg/m3
2022-01-03 18:00 0.56 µg/m3 0.34 µg/m3 75.93 µg/m3 N/A 4.41 µg/m3 0.14 mg/m3 13.33 °C 86.92 % 6.97 m/s 289.88 Deg 0.03 µg/m3
2022-01-03 17:00 0.95 µg/m3 0.34 µg/m3 74.74 µg/m3 N/A 4.15 µg/m3 0.15 mg/m3 13.24 °C 87.06 % 6.61 m/s 293.97 Deg 0.04 µg/m3
2022-01-03 16:00 0.44 µg/m3 0.31 µg/m3 72.96 µg/m3 N/A 3.72 µg/m3 0.15 mg/m3 13.4 °C 86.69 % 6.71 m/s 295.74 Deg 0.05 µg/m3
2022-01-03 15:00 1.1 µg/m3 0.35 µg/m3 67.65 µg/m3 N/A 4.32 µg/m3 0.15 mg/m3 13.48 °C 86.06 % 7 m/s 286.06 Deg 0.1 µg/m3
2022-01-03 14:00 0.77 µg/m3 0.3 µg/m3 70.55 µg/m3 N/A 4.59 µg/m3 0.15 mg/m3 13.56 °C 85.31 % 6.9 m/s 287.51 Deg 0.11 µg/m3
2022-01-03 13:00 2.65 µg/m3 0.3 µg/m3 70.4 µg/m3 N/A 4.53 µg/m3 0.15 mg/m3 13.44 °C 85.47 % 6.89 m/s 293.74 Deg 0.3 µg/m3
2022-01-03 12:00 0.23 µg/m3 0.34 µg/m3 72.71 µg/m3 N/A 5.49 µg/m3 0.14 mg/m3 13.29 °C 85.14 % 6.95 m/s 281.1 Deg 0.08 µg/m3
2022-01-03 11:00 0.11 µg/m3 0.31 µg/m3 72.15 µg/m3 N/A 4.2 µg/m3 0.14 mg/m3 13.14 °C 85.62 % 7.16 m/s 277.28 Deg 0.06 µg/m3
2022-01-03 10:00 0.32 µg/m3 0.31 µg/m3 72.06 µg/m3 N/A 3.77 µg/m3 0.14 mg/m3 12.97 °C 85.43 % 7.19 m/s 291 Deg 0.06 µg/m3
2022-01-03 09:00 0.41 µg/m3 0.3 µg/m3 70.32 µg/m3 N/A 3.73 µg/m3 0.14 mg/m3 12.99 °C 85.09 % 6.99 m/s 286.05 Deg 0.06 µg/m3
2022-01-03 08:00 0.94 µg/m3 0.3 µg/m3 69.28 µg/m3 N/A 3.39 µg/m3 0.14 mg/m3 12.89 °C 85.64 % 6.83 m/s 290.48 Deg 0.04 µg/m3
2022-01-03 07:00 1.04 µg/m3 0.31 µg/m3 69.76 µg/m3 N/A 3.36 µg/m3 0.14 mg/m3 12.96 °C 86.07 % 6.7 m/s 282.01 Deg 0.03 µg/m3
2022-01-03 06:00 3.02 µg/m3 0.33 µg/m3 68.29 µg/m3 N/A 4.08 µg/m3 0.14 mg/m3 12.95 °C 86.71 % 6.82 m/s 288.23 Deg 0.04 µg/m3
2022-01-03 05:00 0.73 µg/m3 0.32 µg/m3 71.29 µg/m3 N/A 4.26 µg/m3 0.15 mg/m3 12.99 °C 87.18 % 6.47 m/s 285.33 Deg 0.02 µg/m3
2022-01-03 04:00 1.11 µg/m3 0.35 µg/m3 71 µg/m3 N/A 4.4 µg/m3 0.14 mg/m3 13.19 °C 87.74 % 5.59 m/s 252.18 Deg 0.04 µg/m3
2022-01-03 03:00 1.99 µg/m3 0.36 µg/m3 68.72 µg/m3 N/A 3.62 µg/m3 0.17 mg/m3 13.4 °C 88.96 % 4.84 m/s 284.71 Deg 0.03 µg/m3
2022-01-03 02:00 3.75 µg/m3 0.39 µg/m3 66.41 µg/m3 N/A 3.69 µg/m3 0.18 mg/m3 13.58 °C 89.19 % 4.41 m/s 285.76 Deg 0.04 µg/m3
2022-01-03 01:00 1.18 µg/m3 0.4 µg/m3 69.65 µg/m3 N/A 3.33 µg/m3 0.18 mg/m3 13.74 °C 88.66 % 4 m/s 277.27 Deg 0.03 µg/m3
2022-01-03 00:00 1.07 µg/m3 0.35 µg/m3 73.43 µg/m3 N/A 4.05 µg/m3 0.17 mg/m3 13.64 °C 88.81 % 4.19 m/s 283.28 Deg 0.03 µg/m3
2022-01-02 23:00 2.45 µg/m3 0.37 µg/m3 72.38 µg/m3 N/A 4.75 µg/m3 0.17 mg/m3 13.4 °C 89.7 % 4.06 m/s 286.85 Deg 0.04 µg/m3
2022-01-02 22:00 1.39 µg/m3 0.41 µg/m3 74.14 µg/m3 N/A 5.55 µg/m3 0.18 mg/m3 13.33 °C 91.29 % 4.07 m/s 274.8 Deg 0.04 µg/m3
2022-01-02 21:00 3.23 µg/m3 0.46 µg/m3 70.75 µg/m3 N/A 5.7 µg/m3 0.18 mg/m3 13.35 °C 92.29 % 3.73 m/s 278.89 Deg 0.04 µg/m3
2022-01-02 20:00 4.31 µg/m3 0.44 µg/m3 67.71 µg/m3 N/A 4.69 µg/m3 0.19 mg/m3 13.45 °C 93.81 % 2.96 m/s 276.48 Deg 0.04 µg/m3
2022-01-02 19:00 5.35 µg/m3 0.41 µg/m3 65.79 µg/m3 N/A 4.3 µg/m3 0.19 mg/m3 13.77 °C 94.09 % 3.21 m/s 283.85 Deg 0.04 µg/m3
2022-01-02 18:00 4.85 µg/m3 0.41 µg/m3 67.49 µg/m3 N/A 4.37 µg/m3 0.18 mg/m3 14.04 °C 93.55 % 3.73 m/s 247.81 Deg 0.04 µg/m3
2022-01-02 17:00 2.39 µg/m3 0.38 µg/m3 74.39 µg/m3 N/A 4.45 µg/m3 0.17 mg/m3 14.29 °C 90.85 % 4.25 m/s 224.93 Deg 0.11 µg/m3
2022-01-02 16:00 2.67 µg/m3 0.48 µg/m3 73.47 µg/m3 N/A 3.72 µg/m3 0.17 mg/m3 14.58 °C 89.94 % 4.22 m/s 227.7 Deg 0.43 µg/m3
2022-01-02 15:00 1.82 µg/m3 0.36 µg/m3 73.4 µg/m3 N/A 4.53 µg/m3 0.17 mg/m3 14.66 °C 89.23 % 4.17 m/s 219.77 Deg 0.41 µg/m3
2022-01-02 14:00 1.33 µg/m3 0.31 µg/m3 73.27 µg/m3 N/A 4.85 µg/m3 0.16 mg/m3 14.99 °C 89.2 % 3.47 m/s 158.29 Deg 0.36 µg/m3
2022-01-02 13:00 0.54 µg/m3 0.39 µg/m3 73.32 µg/m3 N/A 4.17 µg/m3 0.17 mg/m3 14.92 °C 89.04 % 3.04 m/s 178.53 Deg 0.15 µg/m3
2022-01-02 12:00 0.94 µg/m3 0.36 µg/m3 71.01 µg/m3 N/A 4.68 µg/m3 0.17 mg/m3 15.08 °C 88.45 % 2.73 m/s 221.19 Deg 0.25 µg/m3
2022-01-02 11:00 0.78 µg/m3 0.38 µg/m3 68.32 µg/m3 N/A 4.68 µg/m3 0.17 mg/m3 14.79 °C 89.78 % 3.26 m/s 209.88 Deg 0.22 µg/m3
2022-01-02 10:00 1.06 µg/m3 0.38 µg/m3 66.05 µg/m3 N/A 5.06 µg/m3 0.16 mg/m3 14.41 °C 91.07 % 3.2 m/s 200.02 Deg 0.25 µg/m3
2022-01-02 09:00 1.83 µg/m3 0.34 µg/m3 62.68 µg/m3 N/A 4.44 µg/m3 0.17 mg/m3 13.91 °C 92.61 % 2.71 m/s 228.87 Deg 0.25 µg/m3
2022-01-02 08:00 2.33 µg/m3 0.34 µg/m3 60.32 µg/m3 N/A 4.18 µg/m3 0.17 mg/m3 13.23 °C 93.26 % 2.5 m/s 207.09 Deg 0.08 µg/m3
2022-01-02 07:00 1.39 µg/m3 0.3 µg/m3 63.03 µg/m3 N/A 3.93 µg/m3 0.16 mg/m3 13.1 °C 92.95 % 1.74 m/s 231.19 Deg 0.04 µg/m3
2022-01-02 06:00 0.96 µg/m3 0.31 µg/m3 66.08 µg/m3 N/A 4.24 µg/m3 0.15 mg/m3 13.31 °C 92.32 % 2.43 m/s 249.83 Deg 0.03 µg/m3
2022-01-02 05:00 1.47 µg/m3 0.32 µg/m3 65.42 µg/m3 N/A 3.98 µg/m3 0.16 mg/m3 13.36 °C 91.67 % 1.73 m/s 274.28 Deg 0.04 µg/m3
2022-01-02 04:00 0.79 µg/m3 0.32 µg/m3 65.56 µg/m3 N/A 4.62 µg/m3 0.14 mg/m3 13.49 °C 93.37 % 1.78 m/s 312.04 Deg 0.04 µg/m3
2022-01-02 03:00 1.46 µg/m3 0.31 µg/m3 65.54 µg/m3 N/A 4.95 µg/m3 0.17 mg/m3 13.61 °C 94.11 % 3.15 m/s 312.8 Deg 0.04 µg/m3
2022-01-02 02:00 0.39 µg/m3 0.34 µg/m3 66.64 µg/m3 N/A 4.69 µg/m3 0.17 mg/m3 13.75 °C 94.33 % 4.05 m/s 332.05 Deg 0.03 µg/m3
2022-01-02 01:00 2.88 µg/m3 0.39 µg/m3 63.27 µg/m3 N/A 4.64 µg/m3 0.17 mg/m3 13.84 °C 94.94 % 4.1 m/s 339.4 Deg 0.04 µg/m3
2022-01-02 00:00 2.82 µg/m3 0.44 µg/m3 61.25 µg/m3 N/A 6.12 µg/m3 0.18 mg/m3 13.95 °C 94.81 % 4.97 m/s 336.96 Deg 0.04 µg/m3
2022-01-01 23:00 1.28 µg/m3 0.63 µg/m3 62.77 µg/m3 N/A 7.73 µg/m3 0.18 mg/m3 13.99 °C 94.48 % 5.52 m/s 328.74 Deg 0.03 µg/m3
2022-01-01 22:00 7.07 µg/m3 1.15 µg/m3 55.96 µg/m3 N/A 8.76 µg/m3 0.18 mg/m3 14.02 °C 94.48 % 4.91 m/s 318.98 Deg 0.05 µg/m3
2022-01-01 21:00 2.59 µg/m3 1.65 µg/m3 60.28 µg/m3 N/A 8.9 µg/m3 0.17 mg/m3 14.09 °C 94.97 % 5.29 m/s 313.61 Deg 0.03 µg/m3
2022-01-01 20:00 2.84 µg/m3 1.41 µg/m3 59.75 µg/m3 N/A 7.14 µg/m3 0.18 mg/m3 13.94 °C 94.98 % 5.93 m/s 303.96 Deg 0.04 µg/m3
2022-01-01 19:00 7.73 µg/m3 0.43 µg/m3 56 µg/m3 N/A 4.78 µg/m3 0.18 mg/m3 14.12 °C 95.1 % 5.16 m/s 298.73 Deg 0.04 µg/m3
2022-01-01 18:00 1.13 µg/m3 0.31 µg/m3 67.13 µg/m3 N/A 4.71 µg/m3 0.16 mg/m3 14.19 °C 95.37 % 4.88 m/s 295.63 Deg 0.03 µg/m3
2022-01-01 17:00 1.86 µg/m3 0.34 µg/m3 68.16 µg/m3 N/A 4.53 µg/m3 0.17 mg/m3 14.21 °C 94.99 % 5.51 m/s 294.91 Deg 0.08 µg/m3
2022-01-01 16:00 1.77 µg/m3 0.32 µg/m3 72.35 µg/m3 N/A 4.66 µg/m3 0.17 mg/m3 14.29 °C 94.06 % 5.84 m/s 297.61 Deg 0.16 µg/m3
2022-01-01 15:00 0.96 µg/m3 0.35 µg/m3 75.56 µg/m3 N/A 5.59 µg/m3 0.16 mg/m3 14.32 °C 93.38 % 5.78 m/s 297.98 Deg 0.13 µg/m3
2022-01-01 14:00 4.55 µg/m3 0.42 µg/m3 69.53 µg/m3 N/A 5.27 µg/m3 0.16 mg/m3 14.24 °C 93.59 % 5.63 m/s 298.94 Deg 0.94 µg/m3
2022-01-01 13:00 5.29 µg/m3 0.39 µg/m3 67.83 µg/m3 N/A 5.07 µg/m3 0.16 mg/m3 14.15 °C 93.3 % 5.66 m/s 301.35 Deg 1.08 µg/m3
2022-01-01 12:00 3.27 µg/m3 0.33 µg/m3 68.35 µg/m3 N/A 4.86 µg/m3 0.17 mg/m3 14.21 °C 93.74 % 6.02 m/s 302.52 Deg 0.74 µg/m3
2022-01-01 11:00 4.11 µg/m3 0.3 µg/m3 65.6 µg/m3 N/A 5.39 µg/m3 0.18 mg/m3 14.34 °C 94.67 % 5.11 m/s 298.78 Deg 0.85 µg/m3
2022-01-01 10:00 1.77 µg/m3 0.33 µg/m3 66.05 µg/m3 N/A 5.41 µg/m3 0.19 mg/m3 14.34 °C 95.73 % 4.92 m/s 288.46 Deg 0.31 µg/m3
2022-01-01 09:00 2.25 µg/m3 0.37 µg/m3 62.32 µg/m3 N/A 4.37 µg/m3 0.22 mg/m3 14.16 °C 97.32 % 4.17 m/s 288.64 Deg 0.23 µg/m3
2022-01-01 08:00 4.76 µg/m3 0.42 µg/m3 56.91 µg/m3 N/A 5.01 µg/m3 0.21 mg/m3 13.9 °C 97.55 % 2.66 m/s 290.64 Deg 0.15 µg/m3
2022-01-01 07:00 8.23 µg/m3 0.39 µg/m3 57.17 µg/m3 N/A 5.28 µg/m3 0.21 mg/m3 13.87 °C 96.9 % 3.66 m/s 300.18 Deg 0.05 µg/m3
2022-01-01 06:00 1.68 µg/m3 0.32 µg/m3 65.62 µg/m3 N/A 5.53 µg/m3 0.2 mg/m3 13.86 °C 96.77 % 3.85 m/s 283.96 Deg 0.03 µg/m3
2022-01-01 05:00 4.95 µg/m3 0.38 µg/m3 60.55 µg/m3 N/A 5.42 µg/m3 0.23 mg/m3 13.81 °C 95.58 % 3.51 m/s 294.59 Deg 0.04 µg/m3
2022-01-01 04:00 3.28 µg/m3 0.39 µg/m3 63.55 µg/m3 N/A 4.68 µg/m3 0.19 mg/m3 13.95 °C 95.78 % 3.46 m/s 288.33 Deg 0.05 µg/m3
2022-01-01 03:00 7.22 µg/m3 0.4 µg/m3 59.49 µg/m3 N/A 4.88 µg/m3 0.23 mg/m3 14.35 °C 95.79 % 3.25 m/s 291.42 Deg 0.06 µg/m3
2022-01-01 02:00 4.15 µg/m3 0.39 µg/m3 71.27 µg/m3 N/A 4.42 µg/m3 0.23 mg/m3 14.32 °C 92.8 % 3.42 m/s 269.03 Deg 0.03 µg/m3
2022-01-01 01:00 3.19 µg/m3 0.41 µg/m3 77.38 µg/m3 N/A 5.14 µg/m3 0.22 mg/m3 14.24 °C 88.05 % 3.52 m/s 256.03 Deg 0.04 µg/m3
2022-01-01 00:00 3.38 µg/m3 0.39 µg/m3 75.79 µg/m3 N/A 4 µg/m3 0.22 mg/m3 14 °C 89.13 % 3.07 m/s 242.81 Deg 0.04 µg/m3
2021-12-31 23:00 2.35 µg/m3 0.39 µg/m3 80.6 µg/m3 N/A 4.12 µg/m3 0.22 mg/m3 13.87 °C 86.78 % 1.6 m/s 253.15 Deg 0.04 µg/m3
2021-12-31 22:00 1.98 µg/m3 0.42 µg/m3 82.42 µg/m3 N/A 4.39 µg/m3 0.21 mg/m3 13.72 °C 89.02 % 1.76 m/s 280.8 Deg 0.04 µg/m3
2021-12-31 21:00 2.39 µg/m3 0.39 µg/m3 82.97 µg/m3 N/A 4.08 µg/m3 0.21 mg/m3 13.83 °C 89.29 % 1.87 m/s 288.38 Deg 0.04 µg/m3
2021-12-31 20:00 2.19 µg/m3 0.4 µg/m3 87.55 µg/m3 N/A 3.7 µg/m3 0.21 mg/m3 14.45 °C 78.58 % 1.58 m/s 263.43 Deg 0.03 µg/m3
2021-12-31 19:00 1.38 µg/m3 0.41 µg/m3 89.75 µg/m3 N/A 3.67 µg/m3 0.21 mg/m3 14.53 °C 73.81 % 1.52 m/s 263.7 Deg 0.03 µg/m3
2021-12-31 18:00 2.82 µg/m3 0.45 µg/m3 85.74 µg/m3 N/A 4.38 µg/m3 0.21 mg/m3 14.34 °C 76.35 % 1.28 m/s 227.29 Deg 0.03 µg/m3
2021-12-31 17:00 3.83 µg/m3 0.44 µg/m3 80.78 µg/m3 N/A 5.06 µg/m3 0.21 mg/m3 14.78 °C 77.22 % 1.72 m/s 284.96 Deg 0.09 µg/m3
2021-12-31 16:00 1.82 µg/m3 0.46 µg/m3 82.47 µg/m3 N/A 5.3 µg/m3 0.21 mg/m3 15.09 °C 76.97 % 2.42 m/s 303.11 Deg 0.18 µg/m3
2021-12-31 15:00 2.91 µg/m3 0.48 µg/m3 84.09 µg/m3 N/A 5 µg/m3 0.21 mg/m3 15.29 °C 75.74 % 3.04 m/s 208.69 Deg 0.42 µg/m3
2021-12-31 14:00 2.46 µg/m3 0.55 µg/m3 83.49 µg/m3 N/A 4.04 µg/m3 0.2 mg/m3 15.45 °C 74.35 % 3.31 m/s 265.86 Deg 0.41 µg/m3
2021-12-31 13:00 2.7 µg/m3 0.58 µg/m3 81.1 µg/m3 N/A 2.88 µg/m3 0.19 mg/m3 15.44 °C 74.96 % 2.86 m/s 264.82 Deg 0.55 µg/m3
2021-12-31 12:00 2.81 µg/m3 0.63 µg/m3 77.17 µg/m3 N/A 3.85 µg/m3 0.19 mg/m3 15.47 °C 72.36 % 2.45 m/s 232.97 Deg 0.61 µg/m3
2021-12-31 11:00 2.82 µg/m3 0.72 µg/m3 72.41 µg/m3 N/A 5.15 µg/m3 0.18 mg/m3 15.2 °C 81.51 % 2.62 m/s 237.57 Deg 0.61 µg/m3
2021-12-31 10:00 3.99 µg/m3 0.95 µg/m3 68.71 µg/m3 N/A 5.62 µg/m3 0.18 mg/m3 14.93 °C 86.56 % 2.82 m/s 201.98 Deg 0.67 µg/m3
2021-12-31 09:00 4.01 µg/m3 0.92 µg/m3 64.62 µg/m3 N/A 5.12 µg/m3 0.18 mg/m3 14.41 °C 88.79 % 1.76 m/s 225.54 Deg 0.38 µg/m3
2021-12-31 08:00 3.46 µg/m3 0.99 µg/m3 71.08 µg/m3 N/A 4.37 µg/m3 0.18 mg/m3 14.04 °C 87.65 % 1.84 m/s 261.18 Deg 0.09 µg/m3
2021-12-31 07:00 3.28 µg/m3 1.12 µg/m3 72.84 µg/m3 N/A 4.25 µg/m3 0.18 mg/m3 13.98 °C 87.01 % 1.6 m/s 253.95 Deg 0.04 µg/m3
2021-12-31 06:00 3.99 µg/m3 1.39 µg/m3 76.49 µg/m3 N/A 4.8 µg/m3 0.18 mg/m3 13.91 °C 82.66 % 0.52 m/s 217.52 Deg 0.05 µg/m3
2021-12-31 05:00 4.94 µg/m3 1.34 µg/m3 74.94 µg/m3 N/A 5.71 µg/m3 0.19 mg/m3 13.89 °C 82.72 % 0.4 m/s 182.71 Deg 0.05 µg/m3
2021-12-31 04:00 3.79 µg/m3 1.24 µg/m3 75.7 µg/m3 N/A 4.76 µg/m3 0.16 mg/m3 14.07 °C 81.42 % 1.23 m/s 111.23 Deg 0.04 µg/m3
2021-12-31 03:00 4.33 µg/m3 1.3 µg/m3 75.44 µg/m3 N/A 5.07 µg/m3 0.21 mg/m3 14.2 °C 78.98 % 0.95 m/s 103.98 Deg 0.05 µg/m3
2021-12-31 02:00 4.47 µg/m3 1.11 µg/m3 72.34 µg/m3 N/A 4.04 µg/m3 0.2 mg/m3 14.37 °C 77.63 % 1.65 m/s 103.7 Deg 0.05 µg/m3
2021-12-31 01:00 4.86 µg/m3 0.87 µg/m3 69.53 µg/m3 N/A 4.81 µg/m3 0.2 mg/m3 14.05 °C 83.33 % 1.55 m/s 99.53 Deg 0.06 µg/m3
2021-12-31 00:00 4.47 µg/m3 0.69 µg/m3 69.81 µg/m3 N/A 4.33 µg/m3 0.2 mg/m3 13.95 °C 86.41 % 2.87 m/s 105.65 Deg 0.06 µg/m3
2021-12-30 23:00 4.91 µg/m3 0.4 µg/m3 63.65 µg/m3 N/A 4.04 µg/m3 0.19 mg/m3 13.94 °C 93.39 % 3.07 m/s 91.99 Deg 0.06 µg/m3
2021-12-30 22:00 7.66 µg/m3 0.36 µg/m3 63.18 µg/m3 N/A 4.57 µg/m3 0.19 mg/m3 15.05 °C 88.63 % 5.22 m/s 32.18 Deg 0.06 µg/m3
2021-12-30 21:00 6.28 µg/m3 0.34 µg/m3 68.68 µg/m3 N/A 6.08 µg/m3 0.19 mg/m3 15.4 °C 86.59 % 5.14 m/s 92.4 Deg 0.05 µg/m3
2021-12-30 20:00 12.67 µg/m3 0.39 µg/m3 63.37 µg/m3 N/A 5.19 µg/m3 0.19 mg/m3 15.3 °C 89.99 % 4.53 m/s 169.76 Deg 0.05 µg/m3
2021-12-30 19:00 2.02 µg/m3 0.31 µg/m3 75.42 µg/m3 N/A 4.53 µg/m3 0.19 mg/m3 15.22 °C 90.96 % 4.1 m/s 346.98 Deg 0.03 µg/m3
2021-12-30 18:00 4 µg/m3 0.34 µg/m3 73.19 µg/m3 N/A 5.87 µg/m3 0.18 mg/m3 14.99 °C 91.94 % 2.75 m/s 348.02 Deg 0.04 µg/m3
2021-12-30 17:00 1.12 µg/m3 0.3 µg/m3 75.87 µg/m3 N/A 7.21 µg/m3 0.18 mg/m3 15.15 °C 91.43 % 3.58 m/s 352.35 Deg 0.09 µg/m3
2021-12-30 16:00 5.09 µg/m3 0.39 µg/m3 70.18 µg/m3 N/A 7.51 µg/m3 0.18 mg/m3 15.29 °C 90.9 % 4.54 m/s 343.88 Deg 0.86 µg/m3
2021-12-30 15:00 2.11 µg/m3 0.32 µg/m3 71.04 µg/m3 N/A 6.52 µg/m3 0.18 mg/m3 15.47 °C 89.97 % 5.19 m/s 318.09 Deg 0.58 µg/m3
2021-12-30 14:00 0.48 µg/m3 0.29 µg/m3 71.78 µg/m3 N/A 7.29 µg/m3 0.17 mg/m3 15.32 °C 89.43 % 6.51 m/s 331.2 Deg 0.16 µg/m3
2021-12-30 13:00 0.99 µg/m3 0.35 µg/m3 71.02 µg/m3 N/A 6.66 µg/m3 0.17 mg/m3 15.31 °C 90.13 % 6.84 m/s 328.02 Deg 0.31 µg/m3
2021-12-30 12:00 3.26 µg/m3 0.32 µg/m3 67.57 µg/m3 N/A 6.3 µg/m3 0.17 mg/m3 15.45 °C 89.59 % 6.23 m/s 323.63 Deg 1.04 µg/m3
2021-12-30 11:00 0.62 µg/m3 0.27 µg/m3 68.95 µg/m3 N/A 5.69 µg/m3 0.17 mg/m3 15.33 °C 91.69 % 5.78 m/s 333.62 Deg 0.18 µg/m3
2021-12-30 10:00 0.74 µg/m3 0.31 µg/m3 67.17 µg/m3 N/A 6.21 µg/m3 0.17 mg/m3 15.11 °C 95.57 % 6.01 m/s 332.03 Deg 0.12 µg/m3
2021-12-30 09:00 2.98 µg/m3 0.27 µg/m3 65.5 µg/m3 N/A 5.91 µg/m3 0.17 mg/m3 15.03 °C 96.11 % 6.14 m/s 327.54 Deg 0.16 µg/m3
2021-12-30 08:00 4.52 µg/m3 0.3 µg/m3 65.79 µg/m3 N/A 6.36 µg/m3 0.17 mg/m3 14.94 °C 95.53 % 7.25 m/s 318.56 Deg 0.11 µg/m3
2021-12-30 07:00 1.54 µg/m3 0.29 µg/m3 71.16 µg/m3 N/A 7.77 µg/m3 0.17 mg/m3 14.87 °C 95.02 % 7.22 m/s 314.21 Deg 0.04 µg/m3
2021-12-30 06:00 1.37 µg/m3 0.31 µg/m3 73.46 µg/m3 N/A 7.29 µg/m3 0.16 mg/m3 14.9 °C 94.23 % 7.79 m/s 310.9 Deg 0.05 µg/m3
2021-12-30 05:00 2.33 µg/m3 0.34 µg/m3 74.14 µg/m3 N/A 6.11 µg/m3 0.16 mg/m3 14.96 °C 92.84 % 8.61 m/s 315.39 Deg 0.04 µg/m3
2021-12-30 04:00 1.4 µg/m3 0.28 µg/m3 75.21 µg/m3 N/A 7.09 µg/m3 0.14 mg/m3 15.05 °C 92.67 % 8.65 m/s 307.81 Deg 0.04 µg/m3
2021-12-30 03:00 4.01 µg/m3 0.35 µg/m3 72.47 µg/m3 N/A 7.23 µg/m3 0.17 mg/m3 15.15 °C 91.68 % 8.95 m/s 317.77 Deg 0.04 µg/m3
2021-12-30 02:00 3.08 µg/m3 0.31 µg/m3 73.47 µg/m3 N/A 7.1 µg/m3 0.17 mg/m3 15.26 °C 91.15 % 9.98 m/s 308 Deg 0.04 µg/m3
2021-12-30 01:00 0.75 µg/m3 0.29 µg/m3 75.2 µg/m3 N/A 6.91 µg/m3 0.17 mg/m3 15.23 °C 91.62 % 9.43 m/s 318.7 Deg 0.04 µg/m3
2021-12-30 00:00 1.77 µg/m3 0.32 µg/m3 75.6 µg/m3 N/A 7.24 µg/m3 0.17 mg/m3 15.21 °C 91.33 % 9.37 m/s 304.12 Deg 0.04 µg/m3
2021-12-29 23:00 2.15 µg/m3 0.33 µg/m3 76.55 µg/m3 N/A 6.63 µg/m3 0.17 mg/m3 15.28 °C 90.55 % 9.62 m/s 307.42 Deg 0.03 µg/m3
2021-12-29 22:00 1.47 µg/m3 0.32 µg/m3 79 µg/m3 N/A 7.75 µg/m3 0.17 mg/m3 15.28 °C 90.48 % 9.8 m/s 296.5 Deg 0.04 µg/m3
2021-12-29 21:00 2.65 µg/m3 0.31 µg/m3 78.59 µg/m3 N/A 8.81 µg/m3 0.17 mg/m3 15.36 °C 89.56 % 10.25 m/s 299.7 Deg 0.04 µg/m3
2021-12-29 20:00 3.82 µg/m3 0.34 µg/m3 77.21 µg/m3 N/A 7.64 µg/m3 0.17 mg/m3 15.35 °C 89.5 % 9.68 m/s 300.26 Deg 0.04 µg/m3
2021-12-29 19:00 2.95 µg/m3 0.32 µg/m3 79.08 µg/m3 N/A 7.71 µg/m3 0.17 mg/m3 15.37 °C 89.44 % 9.49 m/s 296.73 Deg 0.04 µg/m3
2021-12-29 18:00 3.5 µg/m3 0.32 µg/m3 80.43 µg/m3 N/A 8.69 µg/m3 0.17 mg/m3 15.38 °C 88.87 % 10.08 m/s 299.81 Deg 0.04 µg/m3
2021-12-29 17:00 1.33 µg/m3 0.33 µg/m3 83.53 µg/m3 N/A 8.93 µg/m3 0.17 mg/m3 15.45 °C 89.44 % 9.74 m/s 293.4 Deg 0.07 µg/m3
2021-12-29 16:00 4.12 µg/m3 0.38 µg/m3 81 µg/m3 N/A 9.79 µg/m3 0.17 mg/m3 15.69 °C 87.93 % 9.53 m/s 297.58 Deg 0.4 µg/m3
2021-12-29 15:00 3.06 µg/m3 0.41 µg/m3 82.85 µg/m3 N/A 9.35 µg/m3 0.16 mg/m3 15.74 °C 87.17 % 9.25 m/s 298.09 Deg 0.24 µg/m3
2021-12-29 14:00 5.72 µg/m3 0.39 µg/m3 76.49 µg/m3 N/A 9.45 µg/m3 0.17 mg/m3 15.73 °C 86.95 % 10.25 m/s 298.98 Deg 0.84 µg/m3
2021-12-29 13:00 2.74 µg/m3 0.36 µg/m3 78.9 µg/m3 N/A 8.97 µg/m3 0.17 mg/m3 15.62 °C 87.59 % 9.62 m/s 295.93 Deg 0.38 µg/m3
2021-12-29 12:00 1.76 µg/m3 0.38 µg/m3 76.62 µg/m3 N/A 7.65 µg/m3 0.17 mg/m3 15.55 °C 87.04 % 9.66 m/s 277.4 Deg 0.18 µg/m3
2021-12-29 11:00 1.77 µg/m3 0.41 µg/m3 74.57 µg/m3 N/A 7.84 µg/m3 0.17 mg/m3 15.33 °C 87.31 % 9.09 m/s 288.6 Deg 0.15 µg/m3
2021-12-29 10:00 1.81 µg/m3 0.33 µg/m3 72.71 µg/m3 N/A 8.59 µg/m3 0.17 mg/m3 15.18 °C 88.4 % 8.23 m/s 268.53 Deg 0.15 µg/m3
2021-12-29 09:00 1.43 µg/m3 0.34 µg/m3 75.14 µg/m3 N/A 8.53 µg/m3 0.16 mg/m3 15.06 °C 90.04 % 7.82 m/s 287.52 Deg 0.16 µg/m3
2021-12-29 08:00 2.36 µg/m3 0.36 µg/m3 74.03 µg/m3 N/A 7.43 µg/m3 0.16 mg/m3 15.09 °C 90.93 % 8.55 m/s 288.94 Deg 0.06 µg/m3
2021-12-29 07:00 1.7 µg/m3 0.34 µg/m3 76.27 µg/m3 N/A 7.65 µg/m3 0.17 mg/m3 15.07 °C 89.87 % 7.87 m/s 295.22 Deg 0.04 µg/m3
2021-12-29 06:00 1.01 µg/m3 0.32 µg/m3 78 µg/m3 N/A 6.68 µg/m3 0.16 mg/m3 14.98 °C 90.01 % 7.33 m/s 283.28 Deg 0.04 µg/m3
2021-12-29 05:00 0.88 µg/m3 0.35 µg/m3 78.41 µg/m3 N/A 7.91 µg/m3 0.17 mg/m3 14.99 °C 89.16 % 7.63 m/s 311.62 Deg 0.04 µg/m3
2021-12-29 04:00 4.28 µg/m3 0.37 µg/m3 72.66 µg/m3 N/A 8.16 µg/m3 0.14 mg/m3 14.99 °C 89.63 % 7.8 m/s 303.9 Deg 0.05 µg/m3
2021-12-29 03:00 2.81 µg/m3 0.34 µg/m3 75.58 µg/m3 N/A 7.72 µg/m3 0.19 mg/m3 14.97 °C 88.42 % 7.69 m/s 302 Deg 0.04 µg/m3
2021-12-29 02:00 3.66 µg/m3 0.32 µg/m3 74.41 µg/m3 N/A 6.86 µg/m3 0.19 mg/m3 14.94 °C 87.75 % 8.29 m/s 303.6 Deg 0.05 µg/m3
2021-12-29 01:00 1.6 µg/m3 0.35 µg/m3 80.24 µg/m3 N/A 6.37 µg/m3 0.19 mg/m3 14.91 °C 89.05 % 7.73 m/s 298.78 Deg 0.03 µg/m3
2021-12-29 00:00 0.99 µg/m3 0.36 µg/m3 81.64 µg/m3 N/A 6.78 µg/m3 0.19 mg/m3 14.91 °C 88.53 % 8.29 m/s 297.61 Deg 0.04 µg/m3
2021-12-28 23:00 1.51 µg/m3 0.29 µg/m3 80.5 µg/m3 N/A 6.87 µg/m3 0.19 mg/m3 14.94 °C 90.34 % 7.91 m/s 294.93 Deg 0.03 µg/m3
2021-12-28 22:00 0.8 µg/m3 0.3 µg/m3 82.96 µg/m3 N/A 7.63 µg/m3 0.19 mg/m3 14.98 °C 89.21 % 7.83 m/s 285.3 Deg 0.03 µg/m3
2021-12-28 21:00 0.76 µg/m3 0.31 µg/m3 82.97 µg/m3 N/A 8.16 µg/m3 0.18 mg/m3 14.94 °C 88.86 % 7.94 m/s 293.31 Deg 0.03 µg/m3
2021-12-28 20:00 1.75 µg/m3 0.31 µg/m3 81.41 µg/m3 N/A 7.13 µg/m3 0.18 mg/m3 15.07 °C 89.14 % 7.54 m/s 290.45 Deg 0.03 µg/m3
2021-12-28 19:00 4.1 µg/m3 0.35 µg/m3 78.68 µg/m3 N/A 7.07 µg/m3 0.18 mg/m3 15.21 °C 88.32 % 8.21 m/s 285.95 Deg 0.04 µg/m3
2021-12-28 18:00 3.32 µg/m3 0.38 µg/m3 79.56 µg/m3 N/A 6.55 µg/m3 0.18 mg/m3 15.09 °C 87.45 % 8.79 m/s 284.18 Deg 0.04 µg/m3
2021-12-28 17:00 3.11 µg/m3 0.35 µg/m3 78.8 µg/m3 N/A 6.51 µg/m3 0.17 mg/m3 15.19 °C 87.99 % 8.82 m/s 268.96 Deg 0.09 µg/m3
2021-12-28 16:00 0.93 µg/m3 0.36 µg/m3 80.69 µg/m3 N/A 6.6 µg/m3 0.17 mg/m3 15.48 °C 87.46 % 8.6 m/s 285.24 Deg 0.1 µg/m3
2021-12-28 15:00 1.02 µg/m3 0.38 µg/m3 81.19 µg/m3 N/A 5.91 µg/m3 0.18 mg/m3 15.66 °C 85.45 % 9.03 m/s 244.95 Deg 0.18 µg/m3
2021-12-28 14:00 1.16 µg/m3 0.42 µg/m3 81.74 µg/m3 N/A 6.77 µg/m3 0.18 mg/m3 15.72 °C 82.4 % 9.39 m/s 231.27 Deg 0.24 µg/m3
2021-12-28 13:00 1.3 µg/m3 0.41 µg/m3 81.95 µg/m3 N/A 7.85 µg/m3 0.18 mg/m3 15.84 °C 80.53 % 9.59 m/s 254.18 Deg 0.28 µg/m3
2021-12-28 12:00 1.39 µg/m3 0.43 µg/m3 77.18 µg/m3 N/A 7.57 µg/m3 0.19 mg/m3 15.74 °C 82.53 % 9 m/s 232.88 Deg 0.29 µg/m3
2021-12-28 11:00 2.12 µg/m3 0.43 µg/m3 72.47 µg/m3 N/A 7.91 µg/m3 0.19 mg/m3 15.57 °C 83.74 % 8.66 m/s 245.58 Deg 0.34 µg/m3
2021-12-28 10:00 1.97 µg/m3 0.42 µg/m3 70.22 µg/m3 N/A 8.18 µg/m3 0.18 mg/m3 15.42 °C 85.09 % 8.48 m/s 268.36 Deg 0.3 µg/m3
2021-12-28 09:00 2 µg/m3 0.42 µg/m3 70.44 µg/m3 N/A 7.81 µg/m3 0.17 mg/m3 15.31 °C 85.2 % 7.61 m/s 289.61 Deg 0.2 µg/m3
2021-12-28 08:00 1.52 µg/m3 0.46 µg/m3 68.9 µg/m3 N/A 7 µg/m3 0.17 mg/m3 15.15 °C 86.96 % 7.93 m/s 291.88 Deg 0.07 µg/m3
2021-12-28 07:00 1.96 µg/m3 0.5 µg/m3 65.28 µg/m3 N/A 6.63 µg/m3 0.17 mg/m3 15.27 °C 86.34 % 8.35 m/s 270.25 Deg 0.05 µg/m3
2021-12-28 06:00 2.03 µg/m3 0.57 µg/m3 65.06 µg/m3 N/A 6.25 µg/m3 0.17 mg/m3 15.53 °C 85.57 % 9.03 m/s 287.84 Deg 0.05 µg/m3
2021-12-28 05:00 2.22 µg/m3 1.07 µg/m3 63.48 µg/m3 N/A 7.66 µg/m3 0.18 mg/m3 15.85 °C 85.36 % 9.21 m/s 266.91 Deg 0.06 µg/m3
2021-12-28 04:00 1.98 µg/m3 2.59 µg/m3 73.65 µg/m3 N/A 7.46 µg/m3 0.16 mg/m3 16.1 °C 84.1 % 9.02 m/s 244.39 Deg 0.04 µg/m3
2021-12-28 03:00 1.64 µg/m3 2.62 µg/m3 77.88 µg/m3 N/A 7.47 µg/m3 0.2 mg/m3 15.76 °C 86.25 % 7.67 m/s 228.66 Deg 0.04 µg/m3
2021-12-28 02:00 1.27 µg/m3 0.83 µg/m3 79.34 µg/m3 N/A 6.71 µg/m3 0.19 mg/m3 15.59 °C 89.13 % 7.53 m/s 231.45 Deg 0.04 µg/m3
2021-12-28 01:00 1.56 µg/m3 0.55 µg/m3 78.74 µg/m3 N/A 6.92 µg/m3 0.2 mg/m3 14.98 °C 91.3 % 6.83 m/s 228.62 Deg 0.04 µg/m3
2021-12-28 00:00 2.33 µg/m3 0.46 µg/m3 78.8 µg/m3 N/A 6.84 µg/m3 0.21 mg/m3 14.54 °C 88.83 % 7.94 m/s 248.71 Deg 0.04 µg/m3
2021-12-27 23:00 1.8 µg/m3 0.47 µg/m3 81.33 µg/m3 N/A 7.5 µg/m3 0.21 mg/m3 15.47 °C 89.29 % 8.41 m/s 227.72 Deg 0.04 µg/m3
2021-12-27 22:00 2.09 µg/m3 0.52 µg/m3 79.36 µg/m3 N/A 8.73 µg/m3 0.22 mg/m3 15.39 °C 92.23 % 7.27 m/s 236.83 Deg 0.04 µg/m3
2021-12-27 21:00 2.29 µg/m3 0.63 µg/m3 78.33 µg/m3 N/A 7.51 µg/m3 0.23 mg/m3 15.25 °C 93.09 % 5.99 m/s 227.83 Deg 0.03 µg/m3
2021-12-27 20:00 4.97 µg/m3 0.52 µg/m3 75 µg/m3 N/A 7.12 µg/m3 0.22 mg/m3 15.25 °C 92.47 % 6.1 m/s 259.22 Deg 0.05 µg/m3
2021-12-27 19:00 2.25 µg/m3 0.42 µg/m3 80.08 µg/m3 N/A 6.76 µg/m3 0.22 mg/m3 15.16 °C 87.89 % 5.63 m/s 260.42 Deg 0.04 µg/m3
2021-12-27 18:00 1.59 µg/m3 0.4 µg/m3 80.71 µg/m3 N/A 6.23 µg/m3 0.2 mg/m3 15.08 °C 86.66 % 5.41 m/s 282.58 Deg 0.03 µg/m3
2021-12-27 17:00 1.16 µg/m3 0.42 µg/m3 80.64 µg/m3 N/A 6.1 µg/m3 0.19 mg/m3 15.15 °C 85.71 % 5.65 m/s 272.31 Deg 0.05 µg/m3
2021-12-27 16:00 1.47 µg/m3 0.4 µg/m3 79.91 µg/m3 N/A 5.75 µg/m3 0.2 mg/m3 15.42 °C 87.23 % 5.71 m/s 270.56 Deg 0.09 µg/m3
2021-12-27 15:00 1.05 µg/m3 0.39 µg/m3 78.87 µg/m3 N/A 5.88 µg/m3 0.19 mg/m3 15.7 °C 87.11 % 4.94 m/s 233.73 Deg 0.14 µg/m3
2021-12-27 14:00 1.79 µg/m3 0.45 µg/m3 78.58 µg/m3 N/A 5.4 µg/m3 0.2 mg/m3 15.76 °C 85.78 % 5.04 m/s 235.73 Deg 0.22 µg/m3
2021-12-27 13:00 2.36 µg/m3 0.45 µg/m3 74.96 µg/m3 N/A 5.46 µg/m3 0.2 mg/m3 15.86 °C 86.02 % 3.79 m/s 240.38 Deg 0.36 µg/m3
2021-12-27 12:00 2.16 µg/m3 0.52 µg/m3 71.47 µg/m3 N/A 5.61 µg/m3 0.2 mg/m3 16 °C 84.9 % 3.69 m/s 253.97 Deg 0.41 µg/m3
2021-12-27 11:00 3.75 µg/m3 0.61 µg/m3 64.64 µg/m3 N/A 5.98 µg/m3 0.19 mg/m3 15.99 °C 83.59 % 3.49 m/s 257.79 Deg 0.84 µg/m3
2021-12-27 10:00 4.05 µg/m3 0.62 µg/m3 62.68 µg/m3 N/A 6.7 µg/m3 0.18 mg/m3 15.74 °C 82.19 % 4.09 m/s 279.95 Deg 0.7 µg/m3
2021-12-27 09:00 5.75 µg/m3 0.65 µg/m3 56.5 µg/m3 N/A 6.16 µg/m3 0.18 mg/m3 15.29 °C 84.95 % 2.93 m/s 270.2 Deg 0.65 µg/m3
2021-12-27 08:00 4.93 µg/m3 0.55 µg/m3 60.17 µg/m3 N/A 4.65 µg/m3 0.18 mg/m3 14.6 °C 91.93 % 1.82 m/s 315.34 Deg 0.15 µg/m3
2021-12-27 07:00 0.78 µg/m3 0.4 µg/m3 72.88 µg/m3 N/A 4.91 µg/m3 0.16 mg/m3 14.81 °C 93.54 % 3.05 m/s 300.89 Deg 0.03 µg/m3
2021-12-27 06:00 1.35 µg/m3 0.58 µg/m3 71.6 µg/m3 N/A 4.52 µg/m3 0.15 mg/m3 15.13 °C 88.01 % 3.05 m/s 263.61 Deg 0.03 µg/m3
2021-12-27 05:00 1.4 µg/m3 0.8 µg/m3 70.96 µg/m3 N/A 5.75 µg/m3 0.16 mg/m3 15.73 °C 78.09 % 2.4 m/s 230.87 Deg 0.04 µg/m3
2021-12-27 04:00 2.13 µg/m3 1.01 µg/m3 76.31 µg/m3 N/A 5.29 µg/m3 0.14 mg/m3 15.73 °C 81.63 % 2.3 m/s 234.5 Deg 0.04 µg/m3
2021-12-27 03:00 2.5 µg/m3 1.28 µg/m3 77.12 µg/m3 N/A 5.33 µg/m3 0.18 mg/m3 15.73 °C 81.13 % 3.71 m/s 208.64 Deg 0.04 µg/m3
2021-12-27 02:00 0.44 µg/m3 1.06 µg/m3 80.92 µg/m3 N/A 5.51 µg/m3 0.18 mg/m3 15.75 °C 87.02 % 4.61 m/s 200.95 Deg 0.04 µg/m3
2021-12-27 01:00 0.32 µg/m3 1.01 µg/m3 80.74 µg/m3 N/A 5.33 µg/m3 0.18 mg/m3 15.86 °C 85.7 % 5.53 m/s 188.22 Deg 0.04 µg/m3
2021-12-27 00:00 0.2 µg/m3 0.65 µg/m3 76.36 µg/m3 N/A 5.22 µg/m3 0.17 mg/m3 15.57 °C 89.09 % 5.72 m/s 182.62 Deg 0.04 µg/m3
2021-12-26 23:00 0.05 µg/m3 0.51 µg/m3 75.06 µg/m3 N/A 5.39 µg/m3 0.17 mg/m3 15.4 °C 89.89 % 5.41 m/s 179.98 Deg 0.04 µg/m3
2021-12-26 22:00 0.13 µg/m3 0.47 µg/m3 73.55 µg/m3 N/A 4.78 µg/m3 0.17 mg/m3 15.44 °C 90.99 % 5.94 m/s 175.19 Deg 0.03 µg/m3
2021-12-26 21:00 0.6 µg/m3 0.34 µg/m3 72.06 µg/m3 N/A 4.41 µg/m3 0.17 mg/m3 15.42 °C 90.98 % 6.12 m/s 146.29 Deg 0.04 µg/m3
2021-12-26 20:00 0.22 µg/m3 0.34 µg/m3 70.95 µg/m3 N/A 3.63 µg/m3 0.17 mg/m3 15.33 °C 90.59 % 5.74 m/s 173.64 Deg 0.04 µg/m3
2021-12-26 19:00 0.31 µg/m3 0.37 µg/m3 74.72 µg/m3 N/A 5.03 µg/m3 0.16 mg/m3 15.72 °C 79.94 % 6.11 m/s 154.03 Deg 0.04 µg/m3
2021-12-26 18:00 0.61 µg/m3 0.41 µg/m3 77.05 µg/m3 N/A 5.06 µg/m3 0.17 mg/m3 16 °C 76.12 % 6.3 m/s 149.95 Deg 0.03 µg/m3
2021-12-26 17:00 0.72 µg/m3 0.42 µg/m3 81.57 µg/m3 N/A 5.41 µg/m3 0.16 mg/m3 16.74 °C 61.47 % 7.23 m/s 124.01 Deg 0.04 µg/m3
2021-12-26 16:00 0.84 µg/m3 0.45 µg/m3 80.42 µg/m3 N/A 6.15 µg/m3 0.16 mg/m3 16.81 °C 64.08 % 7.19 m/s 150.79 Deg 0.09 µg/m3
2021-12-26 15:00 1.95 µg/m3 0.44 µg/m3 82.12 µg/m3 N/A 7.25 µg/m3 0.18 mg/m3 16.92 °C 66.66 % 6.98 m/s 137.65 Deg 0.27 µg/m3
2021-12-26 14:00 4.2 µg/m3 0.53 µg/m3 81.81 µg/m3 N/A 6.85 µg/m3 0.22 mg/m3 17.18 °C 67.11 % 7.27 m/s 95.49 Deg 0.72 µg/m3
2021-12-26 13:00 6.22 µg/m3 0.53 µg/m3 78.09 µg/m3 N/A 6.41 µg/m3 0.23 mg/m3 17.45 °C 63.41 % 7.67 m/s 117.03 Deg 1.25 µg/m3
2021-12-26 12:00 6.53 µg/m3 0.5 µg/m3 75.73 µg/m3 N/A 6.44 µg/m3 0.22 mg/m3 17.73 °C 55.09 % 8.19 m/s 129.29 Deg 1.39 µg/m3
2021-12-26 11:00 5.26 µg/m3 0.6 µg/m3 74.45 µg/m3 N/A 7.64 µg/m3 0.21 mg/m3 17.84 °C 50.54 % 7.53 m/s 128.17 Deg 1.04 µg/m3
2021-12-26 10:00 6.71 µg/m3 0.59 µg/m3 67.03 µg/m3 N/A 7.43 µg/m3 0.23 mg/m3 17.16 °C 65.94 % 6.85 m/s 130.31 Deg 1.25 µg/m3
2021-12-26 09:00 2.28 µg/m3 0.47 µg/m3 71.31 µg/m3 N/A 7.23 µg/m3 0.17 mg/m3 16.55 °C 69.53 % 6.3 m/s 127.17 Deg 0.27 µg/m3
2021-12-26 08:00 1.18 µg/m3 0.39 µg/m3 69.78 µg/m3 N/A 6.73 µg/m3 0.16 mg/m3 15.66 °C 79.97 % 5.55 m/s 158.03 Deg 0.04 µg/m3
2021-12-26 07:00 3.29 µg/m3 0.49 µg/m3 72.57 µg/m3 N/A 6.68 µg/m3 0.15 mg/m3 15.93 °C 72.39 % 5.46 m/s 187.72 Deg 0.04 µg/m3
2021-12-26 06:00 0.52 µg/m3 0.41 µg/m3 75.77 µg/m3 N/A 7.52 µg/m3 0.15 mg/m3 15.82 °C 75.18 % 5.15 m/s 199.96 Deg 0.04 µg/m3
2021-12-26 05:00 1.03 µg/m3 0.48 µg/m3 74.06 µg/m3 N/A 7.19 µg/m3 0.16 mg/m3 16.18 °C 76.15 % 6.83 m/s 171.16 Deg 0.04 µg/m3
2021-12-26 04:00 1.42 µg/m3 0.51 µg/m3 73.04 µg/m3 N/A 7.27 µg/m3 0.13 mg/m3 16.29 °C 74.92 % 6.96 m/s 159.28 Deg 0.04 µg/m3
2021-12-26 03:00 2.89 µg/m3 0.59 µg/m3 72.29 µg/m3 N/A 6.56 µg/m3 0.16 mg/m3 16.32 °C 71.86 % 7.15 m/s 128.8 Deg 0.04 µg/m3
2021-12-26 02:00 0.94 µg/m3 0.59 µg/m3 75.07 µg/m3 N/A 6.99 µg/m3 0.16 mg/m3 16.1 °C 74.73 % 6.78 m/s 150.45 Deg 0.03 µg/m3
2021-12-26 01:00 0.66 µg/m3 0.73 µg/m3 78.92 µg/m3 N/A 6.52 µg/m3 0.16 mg/m3 16.17 °C 73.82 % 7.62 m/s 179.99 Deg 0.03 µg/m3
2021-12-26 00:00 0.55 µg/m3 0.65 µg/m3 79.42 µg/m3 N/A 6.61 µg/m3 0.16 mg/m3 16.12 °C 73.24 % 7.7 m/s 160.18 Deg 0.03 µg/m3
2021-12-25 23:00 0.3 µg/m3 0.72 µg/m3 78.43 µg/m3 N/A 7.63 µg/m3 0.16 mg/m3 15.98 °C 75.61 % 7.23 m/s 178.63 Deg 0.04 µg/m3
2021-12-25 22:00 0.43 µg/m3 0.86 µg/m3 78.8 µg/m3 N/A 7.81 µg/m3 0.17 mg/m3 15.85 °C 80.25 % 7.41 m/s 178.81 Deg 0.03 µg/m3
2021-12-25 21:00 0.7 µg/m3 1.06 µg/m3 78.25 µg/m3 N/A 7.11 µg/m3 0.17 mg/m3 15.95 °C 81.16 % 8.51 m/s 164.91 Deg 0.03 µg/m3
2021-12-25 20:00 3.36 µg/m3 0.88 µg/m3 74.01 µg/m3 N/A 7.67 µg/m3 0.17 mg/m3 15.85 °C 81.91 % 7.93 m/s 133.01 Deg 0.08 µg/m3
2021-12-25 19:00 0.69 µg/m3 0.68 µg/m3 75.79 µg/m3 N/A 7.86 µg/m3 0.17 mg/m3 15.8 °C 82.87 % 7.66 m/s 141.45 Deg 0.04 µg/m3
2021-12-25 18:00 0.97 µg/m3 0.75 µg/m3 76.57 µg/m3 N/A 8.54 µg/m3 0.17 mg/m3 15.96 °C 80.26 % 7.74 m/s 173.82 Deg 0.03 µg/m3
2021-12-25 17:00 2.54 µg/m3 0.96 µg/m3 78.4 µg/m3 N/A 9.86 µg/m3 0.19 mg/m3 16.21 °C 78.29 % 8.05 m/s 162.26 Deg 0.1 µg/m3
2021-12-25 16:00 4.14 µg/m3 1.43 µg/m3 88.4 µg/m3 N/A 10.16 µg/m3 0.25 mg/m3 16.36 °C 81.07 % 7.33 m/s 132.17 Deg 0.19 µg/m3
2021-12-25 15:00 3.37 µg/m3 2.75 µg/m3 91.63 µg/m3 N/A 10.56 µg/m3 0.24 mg/m3 16.74 °C 79 % 7.46 m/s 141.71 Deg 0.23 µg/m3
2021-12-25 14:00 2.33 µg/m3 5.69 µg/m3 90.49 µg/m3 N/A 8.97 µg/m3 0.22 mg/m3 16.9 °C 77.31 % 7.85 m/s 134.2 Deg 0.2 µg/m3
2021-12-25 13:00 3.05 µg/m3 1.67 µg/m3 88.18 µg/m3 N/A 8.65 µg/m3 0.21 mg/m3 16.8 °C 79.7 % 7.78 m/s 152.26 Deg 0.37 µg/m3
2021-12-25 12:00 4.11 µg/m3 0.94 µg/m3 85.06 µg/m3 N/A 8.69 µg/m3 0.23 mg/m3 16.66 °C 82.66 % 6.83 m/s 153.08 Deg 0.51 µg/m3
2021-12-25 11:00 4.15 µg/m3 0.58 µg/m3 83.96 µg/m3 N/A 7.7 µg/m3 0.23 mg/m3 16.51 °C 84.27 % 7.35 m/s 121.55 Deg 0.49 µg/m3
2021-12-25 10:00 3.32 µg/m3 0.49 µg/m3 83.65 µg/m3 N/A 8.25 µg/m3 0.21 mg/m3 16.14 °C 85.79 % 6.78 m/s 124.94 Deg 0.33 µg/m3
2021-12-25 09:00 4.17 µg/m3 0.5 µg/m3 87.05 µg/m3 N/A 9.03 µg/m3 0.23 mg/m3 15.6 °C 87.49 % 6.26 m/s 159.01 Deg 0.22 µg/m3
2021-12-25 08:00 4.66 µg/m3 0.5 µg/m3 99.14 µg/m3 N/A 9.34 µg/m3 0.27 mg/m3 15.18 °C 88.31 % 6.32 m/s 144.73 Deg 0.08 µg/m3
2021-12-25 07:00 4.83 µg/m3 0.51 µg/m3 99.25 µg/m3 N/A 7.38 µg/m3 0.25 mg/m3 14.96 °C 89.85 % 5.78 m/s 146.68 Deg 0.05 µg/m3
2021-12-25 06:00 4.07 µg/m3 0.39 µg/m3 98.69 µg/m3 N/A 7.2 µg/m3 0.23 mg/m3 15.01 °C 88.91 % 5.98 m/s 156.64 Deg 0.04 µg/m3
2021-12-25 05:00 2.69 µg/m3 0.4 µg/m3 96.04 µg/m3 N/A 7.47 µg/m3 0.21 mg/m3 14.97 °C 88.07 % 6.09 m/s 134.15 Deg 0.03 µg/m3
2021-12-25 04:00 1.13 µg/m3 0.4 µg/m3 98.46 µg/m3 N/A 6.7 µg/m3 0.17 mg/m3 15.13 °C 86.34 % 6.78 m/s 167 Deg 0.03 µg/m3
2021-12-25 03:00 1.03 µg/m3 0.31 µg/m3 97.87 µg/m3 N/A 5.9 µg/m3 0.21 mg/m3 14.97 °C 86.16 % 6.06 m/s 164.88 Deg 0.03 µg/m3
2021-12-25 02:00 0.55 µg/m3 0.33 µg/m3 89.78 µg/m3 N/A 4.99 µg/m3 0.19 mg/m3 14.94 °C 86.93 % 5.4 m/s 174.32 Deg 0.02 µg/m3
2021-12-25 01:00 0.08 µg/m3 0.31 µg/m3 82.86 µg/m3 N/A 4.78 µg/m3 0.18 mg/m3 14.65 °C 86.75 % 4.69 m/s 169.2 Deg 0.03 µg/m3
2021-12-25 00:00 0.14 µg/m3 0.31 µg/m3 83.69 µg/m3 N/A 4.68 µg/m3 0.18 mg/m3 14.52 °C 84.93 % 4.61 m/s 159.61 Deg 0.03 µg/m3
2021-12-24 23:00 0.16 µg/m3 0.35 µg/m3 81.05 µg/m3 N/A 4.19 µg/m3 0.18 mg/m3 14.08 °C 85.36 % 3.89 m/s 145.93 Deg 0.04 µg/m3
2021-12-24 22:00 0.35 µg/m3 0.33 µg/m3 80.21 µg/m3 N/A 5.16 µg/m3 0.17 mg/m3 13.68 °C 87.09 % 3.57 m/s 136.72 Deg 0.03 µg/m3
2021-12-24 21:00 0.26 µg/m3 0.33 µg/m3 81.29 µg/m3 N/A 5.05 µg/m3 0.17 mg/m3 13.55 °C 86.12 % 3.6 m/s 137.35 Deg 0.03 µg/m3
2021-12-24 20:00 0.83 µg/m3 0.36 µg/m3 79.87 µg/m3 N/A 5.2 µg/m3 0.17 mg/m3 13.5 °C 86 % 3.73 m/s 130.57 Deg 0.03 µg/m3

It is to be noted that the data is provisional and subject to quality assurance procedures. For validated data kindly refer your request to contact.air@era.org.mt